Time,TemperatureF,DewpointF,PressureIn,WindDirection,WindDirectionDegrees,WindSpeedMPH,WindSpeedGustMPH,Humidity,HourlyPrecipIn,Conditions,Clouds,dailyrainin,SoftwareType,DateUTC
2013-06-12 00:00:00,55.3,49.6,29.78,NE,39,0.0,0.0,81,0.00,,CLR,0.00,VWS V12.07,2013-06-12 05:00:00,
2013-06-12 00:01:00,55.3,49.6,29.78,NE,39,0.0,0.0,81,0.00,,CLR,0.00,VWS V12.07,2013-06-12 05:01:00,
2013-06-12 00:04:00,55.1,49.7,29.78,NE,39,0.0,0.0,82,0.00,,CLR,0.00,VWS V12.07,2013-06-12 05:04:00,
2013-06-12 00:05:00,55.1,49.7,29.78,NE,39,0.0,0.0,82,0.00,,CLR,0.00,VWS V12.07,2013-06-12 05:05:00,
2013-06-12 00:06:00,55.1,49.7,29.78,NE,39,0.0,0.0,82,0.00,,CLR,0.00,VWS V12.07,2013-06-12 05:06:00,
2013-06-12 00:07:00,55.1,50.0,29.78,NE,39,0.0,0.0,83,0.00,,CLR,0.00,VWS V12.07,2013-06-12 05:07:00,
2013-06-12 00:09:00,55.0,49.9,29.78,NE,39,0.0,0.0,83,0.00,,CLR,0.00,VWS V12.07,2013-06-12 05:09:00,
2013-06-12 00:10:00,55.0,49.9,29.78,NE,39,0.0,0.0,83,0.00,,CLR,0.00,VWS V12.07,2013-06-12 05:10:00,
2013-06-12 00:11:00,54.8,49.7,29.78,NE,39,0.0,0.0,83,0.00,,CLR,0.00,VWS V12.07,2013-06-12 05:11:00,
2013-06-12 00:12:00,54.8,49.4,29.78,NE,39,0.0,0.0,82,0.00,,CLR,0.00,VWS V12.07,2013-06-12 05:12:00,
2013-06-12 00:15:00,54.7,49.3,29.78,NE,39,0.0,0.0,82,0.00,,CLR,0.00,VWS V12.07,2013-06-12 05:15:00,
2013-06-12 00:17:00,54.7,49.7,29.78,NE,39,0.0,0.0,83,0.00,,CLR,0.00,VWS V12.07,2013-06-12 05:17:00,
2013-06-12 00:20:00,54.4,49.0,29.78,NE,39,0.0,0.0,82,0.00,,CLR,0.00,VWS V12.07,2013-06-12 05:20:00,
2013-06-12 00:21:00,54.4,49.0,29.78,NE,39,0.0,0.0,82,0.00,,CLR,0.00,VWS V12.07,2013-06-12 05:21:00,
2013-06-12 00:22:00,54.4,49.0,29.78,NE,39,0.0,0.0,82,0.00,,CLR,0.00,VWS V12.07,2013-06-12 05:22:00,
2013-06-12 00:25:00,54.4,49.3,29.78,NE,39,0.0,0.0,83,0.00,,CLR,0.00,VWS V12.07,2013-06-12 05:25:00,
2013-06-12 00:26:00,54.2,49.2,29.78,NE,39,0.0,0.0,83,0.00,,CLR,0.00,VWS V12.07,2013-06-12 05:26:00,
2013-06-12 00:27:00,54.2,49.2,29.78,NE,39,0.0,0.0,83,0.00,,CLR,0.00,VWS V12.07,2013-06-12 05:27:00,
2013-06-12 00:28:00,54.2,49.2,29.79,NE,39,0.0,0.0,83,0.00,,CLR,0.00,VWS V12.07,2013-06-12 05:28:00,
2013-06-12 00:30:00,54.1,49.1,29.79,NE,39,0.0,0.0,83,0.00,,CLR,0.00,VWS V12.07,2013-06-12 05:30:00,
2013-06-12 00:31:00,54.1,49.4,29.79,NE,39,0.0,0.0,84,0.00,,CLR,0.00,VWS V12.07,2013-06-12 05:31:00,
2013-06-12 00:33:00,54.1,49.4,29.79,NE,39,0.0,0.0,84,0.00,,CLR,0.00,VWS V12.07,2013-06-12 05:33:00,
2013-06-12 00:34:00,54.1,49.4,29.79,NE,39,0.0,0.0,84,0.00,,CLR,0.00,VWS V12.07,2013-06-12 05:34:00,
2013-06-12 00:35:00,53.9,49.2,29.79,NE,39,0.0,0.0,84,0.00,,CLR,0.00,VWS V12.07,2013-06-12 05:35:00,
2013-06-12 00:36:00,53.9,49.2,29.79,NE,39,0.0,0.0,84,0.00,,CLR,0.00,VWS V12.07,2013-06-12 05:36:00,
2013-06-12 00:38:00,53.8,49.1,29.79,NE,39,0.0,0.0,84,0.00,,CLR,0.00,VWS V12.07,2013-06-12 05:38:00,
2013-06-12 00:39:00,53.8,49.4,29.79,NE,39,0.0,0.0,85,0.00,,CLR,0.00,VWS V12.07,2013-06-12 05:39:00,
2013-06-12 00:40:00,53.8,49.4,29.79,NE,39,0.0,0.0,85,0.00,,CLR,0.00,VWS V12.07,2013-06-12 05:40:00,
2013-06-12 00:41:00,53.6,49.2,29.79,NE,39,0.0,0.0,85,0.00,,CLR,0.00,VWS V12.07,2013-06-12 05:41:00,
2013-06-12 00:43:00,53.6,49.2,29.80,NE,39,0.0,0.0,85,0.00,,CLR,0.00,VWS V12.07,2013-06-12 05:43:00,
2013-06-12 00:44:00,53.5,49.4,29.80,NE,39,0.0,0.0,86,0.00,,CLR,0.00,VWS V12.07,2013-06-12 05:44:00,
2013-06-12 00:46:00,53.5,49.4,29.80,NE,39,0.0,0.0,86,0.00,,CLR,0.00,VWS V12.07,2013-06-12 05:46:00,
2013-06-12 00:48:00,53.3,49.2,29.80,NE,39,0.0,0.0,86,0.00,,CLR,0.00,VWS V12.07,2013-06-12 05:48:00,
2013-06-12 00:50:00,53.3,49.5,29.80,NE,39,0.0,0.0,87,0.00,,CLR,0.00,VWS V12.07,2013-06-12 05:50:00,
2013-06-12 00:51:00,53.3,49.5,29.80,NE,39,0.0,0.0,87,0.00,,CLR,0.00,VWS V12.07,2013-06-12 05:51:00,
2013-06-12 00:53:00,53.2,49.4,29.80,NE,39,0.0,0.0,87,0.00,,CLR,0.00,VWS V12.07,2013-06-12 05:53:00,
2013-06-12 00:55:00,53.2,49.4,29.80,NE,39,0.0,0.0,87,0.00,,CLR,0.00,VWS V12.07,2013-06-12 05:55:00,
2013-06-12 00:56:00,53.2,49.4,29.80,NE,39,0.0,0.0,87,0.00,,CLR,0.00,VWS V12.07,2013-06-12 05:56:00,
2013-06-12 00:57:00,53.2,49.4,29.80,NE,39,0.0,0.0,87,0.00,,CLR,0.00,VWS V12.07,2013-06-12 05:57:00,
2013-06-12 00:59:00,53.2,49.4,29.80,NE,39,0.0,0.0,87,0.00,,CLR,0.00,VWS V12.07,2013-06-12 05:59:00,
2013-06-12 01:00:00,53.5,49.4,29.80,NE,39,0.0,0.0,86,0.00,,CLR,0.00,VWS V12.07,2013-06-12 06:00:00,
2013-06-12 01:01:00,53.2,49.7,29.80,NE,39,0.0,0.0,88,0.00,,CLR,0.00,VWS V12.07,2013-06-12 06:01:00,
2013-06-12 01:02:00,53.2,49.7,29.80,NE,39,0.0,0.0,88,0.00,,CLR,0.00,VWS V12.07,2013-06-12 06:02:00,
2013-06-12 01:04:00,53.2,49.7,29.80,NE,39,0.0,0.0,88,0.00,,CLR,0.00,VWS V12.07,2013-06-12 06:04:00,
2013-06-12 01:06:00,53.2,49.7,29.80,NE,39,0.0,0.0,88,0.00,,CLR,0.00,VWS V12.07,2013-06-12 06:06:00,
2013-06-12 01:07:00,53.1,49.7,29.80,NE,39,0.0,0.0,88,0.00,,CLR,0.00,VWS V12.07,2013-06-12 06:07:00,
2013-06-12 01:08:00,53.1,49.7,29.80,NE,39,0.0,0.0,88,0.00,,CLR,0.00,VWS V12.07,2013-06-12 06:08:00,
2013-06-12 01:10:00,53.1,49.7,29.80,NE,39,0.0,0.0,88,0.00,,CLR,0.00,VWS V12.07,2013-06-12 06:10:00,
2013-06-12 01:11:00,53.1,49.7,29.80,NE,39,0.0,0.0,88,0.00,,CLR,0.00,VWS V12.07,2013-06-12 06:11:00,
2013-06-12 01:12:00,53.1,49.7,29.80,NE,39,0.0,0.0,88,0.00,,CLR,0.00,VWS V12.07,2013-06-12 06:12:00,
2013-06-12 01:13:00,52.9,49.5,29.80,NE,39,0.0,0.0,88,0.00,,CLR,0.00,VWS V12.07,2013-06-12 06:13:00,
2013-06-12 01:15:00,52.9,49.5,29.80,NE,39,0.0,0.0,88,0.00,,CLR,0.00,VWS V12.07,2013-06-12 06:15:00,
2013-06-12 01:16:00,52.9,49.5,29.80,NE,39,0.0,0.0,88,0.00,,CLR,0.00,VWS V12.07,2013-06-12 06:16:00,
2013-06-12 01:17:00,52.9,49.8,29.80,NE,39,0.0,0.0,89,0.00,,CLR,0.00,VWS V12.07,2013-06-12 06:17:00,
2013-06-12 01:18:00,52.9,49.8,29.80,NE,39,0.0,0.0,89,0.00,,CLR,0.00,VWS V12.07,2013-06-12 06:18:00,
2013-06-12 01:20:00,53.2,49.7,29.80,NE,39,0.0,0.0,88,0.00,,CLR,0.00,VWS V12.07,2013-06-12 06:20:00,
2013-06-12 01:21:00,52.9,50.0,29.80,NE,39,0.0,0.0,90,0.00,,CLR,0.00,VWS V12.07,2013-06-12 06:21:00,
2013-06-12 01:22:00,52.9,50.0,29.80,NE,39,0.0,0.0,90,0.00,,CLR,0.00,VWS V12.07,2013-06-12 06:22:00,
2013-06-12 01:23:00,52.9,50.0,29.80,NE,39,0.0,0.0,90,0.00,,CLR,0.00,VWS V12.07,2013-06-12 06:23:00,
2013-06-12 01:24:00,52.9,50.0,29.80,NE,39,0.0,0.0,90,0.00,,CLR,0.00,VWS V12.07,2013-06-12 06:24:00,
2013-06-12 01:26:00,52.8,50.0,29.80,NE,39,0.0,0.0,90,0.00,,CLR,0.00,VWS V12.07,2013-06-12 06:26:00,
2013-06-12 01:27:00,52.8,50.0,29.80,NE,39,0.0,0.0,90,0.00,,CLR,0.00,VWS V12.07,2013-06-12 06:27:00,
2013-06-12 01:28:00,52.8,50.0,29.80,NE,39,0.0,0.0,90,0.00,,CLR,0.00,VWS V12.07,2013-06-12 06:28:00,
2013-06-12 01:29:00,52.8,50.0,29.80,NE,39,0.0,0.0,90,0.00,,CLR,0.00,VWS V12.07,2013-06-12 06:29:00,
2013-06-12 01:30:00,52.9,49.5,29.80,NE,39,0.0,0.0,88,0.00,,CLR,0.00,VWS V12.07,2013-06-12 06:30:00,
2013-06-12 01:31:00,52.8,50.0,29.80,NE,39,0.0,0.0,90,0.00,,CLR,0.00,VWS V12.07,2013-06-12 06:31:00,
2013-06-12 01:32:00,52.8,50.0,29.80,NE,39,0.0,0.0,90,0.00,,CLR,0.00,VWS V12.07,2013-06-12 06:32:00,
2013-06-12 01:33:00,52.8,50.2,29.80,NE,39,0.0,0.0,91,0.00,,CLR,0.00,VWS V12.07,2013-06-12 06:33:00,
2013-06-12 01:34:00,52.8,50.2,29.80,NE,39,0.0,0.0,91,0.00,,CLR,0.00,VWS V12.07,2013-06-12 06:34:00,
2013-06-12 01:37:00,52.8,50.8,29.80,NE,39,0.0,0.0,93,0.00,,CLR,0.00,VWS V12.07,2013-06-12 06:37:00,
2013-06-12 01:38:00,52.8,50.8,29.80,NE,39,0.0,0.0,93,0.00,,CLR,0.00,VWS V12.07,2013-06-12 06:38:00,
2013-06-12 01:39:00,52.8,50.8,29.80,NE,39,0.0,0.0,93,0.00,,CLR,0.00,VWS V12.07,2013-06-12 06:39:00,
2013-06-12 01:40:00,52.8,50.8,29.80,NE,39,0.0,0.0,93,0.00,,CLR,0.00,VWS V12.07,2013-06-12 06:40:00,
2013-06-12 01:42:00,52.8,51.1,29.80,NE,39,0.0,0.0,94,0.00,,CLR,0.00,VWS V12.07,2013-06-12 06:42:00,
2013-06-12 01:44:00,52.6,50.6,29.80,NE,39,0.0,0.0,93,0.00,,CLR,0.00,VWS V12.07,2013-06-12 06:44:00,
2013-06-12 01:45:00,52.6,50.6,29.80,NE,39,0.0,0.0,93,0.00,,CLR,0.00,VWS V12.07,2013-06-12 06:45:00,
2013-06-12 01:48:00,52.5,50.5,29.80,NE,39,0.0,0.0,93,0.00,,CLR,0.00,VWS V12.07,2013-06-12 06:48:00,
2013-06-12 01:49:00,52.5,50.5,29.80,NE,39,0.0,0.0,93,0.00,,CLR,0.00,VWS V12.07,2013-06-12 06:49:00,
2013-06-12 01:50:00,52.3,50.3,29.80,NE,39,0.0,0.0,93,0.00,,CLR,0.00,VWS V12.07,2013-06-12 06:50:00,
2013-06-12 01:53:00,52.2,50.2,29.80,NE,39,0.0,0.0,93,0.00,,CLR,0.00,VWS V12.07,2013-06-12 06:53:00,
2013-06-12 01:54:00,52.2,50.0,29.80,NE,39,0.0,0.0,92,0.00,,CLR,0.00,VWS V12.07,2013-06-12 06:54:00,
2013-06-12 01:55:00,52.0,49.8,29.80,NE,39,0.0,0.0,92,0.00,,CLR,0.00,VWS V12.07,2013-06-12 06:55:00,
2013-06-12 01:59:00,51.7,49.5,29.78,NE,39,0.0,0.0,92,0.00,,CLR,0.00,VWS V12.07,2013-06-12 06:59:00,
2013-06-12 02:00:00,51.6,49.4,29.78,NE,39,0.0,0.0,92,0.00,,CLR,0.00,VWS V12.07,2013-06-12 07:00:00,
2013-06-12 02:04:00,51.4,49.2,29.78,NE,39,0.0,0.0,92,0.00,,CLR,0.00,VWS V12.07,2013-06-12 07:04:00,
2013-06-12 02:05:00,51.3,49.1,29.78,NE,39,0.0,0.0,92,0.00,,CLR,0.00,VWS V12.07,2013-06-12 07:05:00,
2013-06-12 02:06:00,51.3,49.1,29.78,NE,39,0.0,0.0,92,0.00,,CLR,0.00,VWS V12.07,2013-06-12 07:06:00,
2013-06-12 02:09:00,51.3,49.3,29.78,NE,39,0.0,0.0,93,0.00,,CLR,0.00,VWS V12.07,2013-06-12 07:09:00,
2013-06-12 02:10:00,51.3,49.3,29.78,NE,39,0.0,0.0,93,0.00,,CLR,0.00,VWS V12.07,2013-06-12 07:10:00,
2013-06-12 02:11:00,51.3,49.3,29.78,NE,39,0.0,0.0,93,0.00,,CLR,0.00,VWS V12.07,2013-06-12 07:11:00,
2013-06-12 02:15:00,51.3,49.6,29.79,NE,39,0.0,0.0,94,0.00,,CLR,0.00,VWS V12.07,2013-06-12 07:15:00,
2013-06-12 02:16:00,51.3,49.6,29.79,NE,39,0.0,0.0,94,0.00,,CLR,0.00,VWS V12.07,2013-06-12 07:16:00,
2013-06-12 02:18:00,51.3,49.6,29.79,NE,39,0.0,0.0,94,0.00,,CLR,0.00,VWS V12.07,2013-06-12 07:18:00,
2013-06-12 02:20:00,51.3,49.6,29.79,NE,39,0.0,0.0,94,0.00,,CLR,0.00,VWS V12.07,2013-06-12 07:20:00,
2013-06-12 02:21:00,51.3,49.6,29.79,NE,39,0.0,0.0,94,0.00,,CLR,0.00,VWS V12.07,2013-06-12 07:21:00,
2013-06-12 02:22:00,51.3,49.3,29.79,NE,39,0.0,0.0,93,0.00,,CLR,0.00,VWS V12.07,2013-06-12 07:22:00,
2013-06-12 02:24:00,51.3,49.6,29.79,NE,39,0.0,0.0,94,0.00,,CLR,0.00,VWS V12.07,2013-06-12 07:24:00,
2013-06-12 02:25:00,51.3,49.9,29.79,NE,39,0.0,0.0,95,0.00,,CLR,0.00,VWS V12.07,2013-06-12 07:25:00,
2013-06-12 02:26:00,51.1,49.7,29.79,NE,39,0.0,0.0,95,0.00,,CLR,0.00,VWS V12.07,2013-06-12 07:26:00,
2013-06-12 02:27:00,51.1,49.7,29.79,NE,39,0.0,0.0,95,0.00,,CLR,0.00,VWS V12.07,2013-06-12 07:27:00,
2013-06-12 02:30:00,51.1,49.7,29.79,NE,39,0.0,0.0,95,0.00,,CLR,0.00,VWS V12.07,2013-06-12 07:30:00,
2013-06-12 02:32:00,51.0,49.3,29.79,NE,39,0.0,0.0,94,0.00,,CLR,0.00,VWS V12.07,2013-06-12 07:32:00,
2013-06-12 02:35:00,51.0,49.3,29.79,NE,39,0.0,0.0,94,0.00,,CLR,0.00,VWS V12.07,2013-06-12 07:35:00,
2013-06-12 02:36:00,51.0,49.6,29.79,NE,39,0.0,0.0,95,0.00,,CLR,0.00,VWS V12.07,2013-06-12 07:36:00,
2013-06-12 02:37:00,51.0,49.6,29.79,NE,39,0.0,0.0,95,0.00,,CLR,0.00,VWS V12.07,2013-06-12 07:37:00,
2013-06-12 02:38:00,51.0,49.6,29.79,NE,39,0.0,0.0,95,0.00,,CLR,0.00,VWS V12.07,2013-06-12 07:38:00,
2013-06-12 02:40:00,51.1,50.0,29.79,NE,39,0.0,0.0,96,0.00,,CLR,0.00,VWS V12.07,2013-06-12 07:40:00,
2013-06-12 02:41:00,51.1,50.0,29.79,NE,39,0.0,0.0,96,0.00,,CLR,0.00,VWS V12.07,2013-06-12 07:41:00,
2013-06-12 02:43:00,51.0,49.6,29.79,NE,39,0.0,0.0,95,0.00,,CLR,0.00,VWS V12.07,2013-06-12 07:43:00,
2013-06-12 02:46:00,50.8,49.1,29.79,NE,39,0.0,0.0,94,0.00,,CLR,0.00,VWS V12.07,2013-06-12 07:46:00,
2013-06-12 02:48:00,50.8,49.1,29.79,NE,39,0.0,0.0,94,0.00,,CLR,0.00,VWS V12.07,2013-06-12 07:48:00,
2013-06-12 02:49:00,50.8,49.1,29.79,NE,39,0.0,0.0,94,0.00,,CLR,0.00,VWS V12.07,2013-06-12 07:49:00,
2013-06-12 02:50:00,51.0,49.3,29.79,NE,39,0.0,0.0,94,0.00,,CLR,0.00,VWS V12.07,2013-06-12 07:50:00,
2013-06-12 02:51:00,50.7,49.0,29.79,NE,39,0.0,0.0,94,0.00,,CLR,0.00,VWS V12.07,2013-06-12 07:51:00,
2013-06-12 02:53:00,50.7,49.3,29.79,NE,39,0.0,0.0,95,0.00,,CLR,0.00,VWS V12.07,2013-06-12 07:53:00,
2013-06-12 02:54:00,50.7,49.3,29.79,NE,39,0.0,0.0,95,0.00,,CLR,0.00,VWS V12.07,2013-06-12 07:54:00,
2013-06-12 02:55:00,50.7,49.3,29.79,NE,39,0.0,0.0,95,0.00,,CLR,0.00,VWS V12.07,2013-06-12 07:55:00,
2013-06-12 02:57:00,50.7,49.6,29.79,NE,39,0.0,0.0,96,0.00,,CLR,0.00,VWS V12.07,2013-06-12 07:57:00,
2013-06-12 02:58:00,50.7,49.6,29.80,NE,39,0.0,0.0,96,0.00,,CLR,0.00,VWS V12.07,2013-06-12 07:58:00,
2013-06-12 02:59:00,50.7,49.6,29.80,NE,39,0.0,0.0,96,0.00,,CLR,0.00,VWS V12.07,2013-06-12 07:59:00,
2013-06-12 03:00:00,50.7,49.6,29.80,NE,39,0.0,0.0,96,0.00,,CLR,0.00,VWS V12.07,2013-06-12 08:00:00,
2013-06-12 03:02:00,50.7,49.6,29.80,NE,39,0.0,0.0,96,0.00,,CLR,0.00,VWS V12.07,2013-06-12 08:02:00,
2013-06-12 03:03:00,50.7,49.6,29.80,NE,39,0.0,0.0,96,0.00,,CLR,0.00,VWS V12.07,2013-06-12 08:03:00,
2013-06-12 03:04:00,50.5,49.4,29.80,NE,39,0.0,0.0,96,0.00,,CLR,0.00,VWS V12.07,2013-06-12 08:04:00,
2013-06-12 03:05:00,50.5,49.4,29.80,NE,39,0.0,0.0,96,0.00,,CLR,0.00,VWS V12.07,2013-06-12 08:05:00,
2013-06-12 03:07:00,50.5,49.4,29.80,NE,39,0.0,0.0,96,0.00,,CLR,0.00,VWS V12.07,2013-06-12 08:07:00,
2013-06-12 03:09:00,50.4,49.0,29.80,NE,39,0.0,0.0,95,0.00,,CLR,0.00,VWS V12.07,2013-06-12 08:09:00,
2013-06-12 03:10:00,50.7,49.3,29.79,NE,39,0.0,0.0,95,0.00,,CLR,0.00,VWS V12.07,2013-06-12 08:10:00,
2013-06-12 03:11:00,50.4,49.3,29.80,NE,39,0.0,0.0,96,0.00,,CLR,0.00,VWS V12.07,2013-06-12 08:11:00,
2013-06-12 03:12:00,50.4,49.3,29.80,NE,39,0.0,0.0,96,0.00,,CLR,0.00,VWS V12.07,2013-06-12 08:12:00,
2013-06-12 03:14:00,50.4,49.3,29.80,NE,39,0.0,0.0,96,0.00,,CLR,0.00,VWS V12.07,2013-06-12 08:14:00,
2013-06-12 03:15:00,50.4,49.3,29.80,NE,39,0.0,0.0,96,0.00,,CLR,0.00,VWS V12.07,2013-06-12 08:15:00,
2013-06-12 03:16:00,50.4,49.6,29.80,NE,39,0.0,0.0,97,0.00,,CLR,0.00,VWS V12.07,2013-06-12 08:16:00,
2013-06-12 03:18:00,50.4,49.6,29.80,NE,39,0.0,0.0,97,0.00,,CLR,0.00,VWS V12.07,2013-06-12 08:18:00,
2013-06-12 03:20:00,50.5,50.0,29.80,NE,39,0.0,0.0,98,0.00,,CLR,0.00,VWS V12.07,2013-06-12 08:20:00,
2013-06-12 03:22:00,50.5,50.0,29.80,NE,39,0.0,0.0,98,0.00,,CLR,0.00,VWS V12.07,2013-06-12 08:22:00,
2013-06-12 03:23:00,50.5,50.0,29.80,NE,39,0.0,0.0,98,0.00,,CLR,0.00,VWS V12.07,2013-06-12 08:23:00,
2013-06-12 03:24:00,50.5,50.0,29.80,NE,39,0.0,0.0,98,0.00,,CLR,0.00,VWS V12.07,2013-06-12 08:24:00,
2013-06-12 03:25:00,50.5,50.0,29.80,NE,39,0.0,0.0,98,0.00,,CLR,0.00,VWS V12.07,2013-06-12 08:25:00,
2013-06-12 03:30:00,50.4,49.3,29.80,NE,39,0.0,0.0,96,0.00,,CLR,0.00,VWS V12.07,2013-06-12 08:30:00,
2013-06-12 03:40:00,50.5,50.0,29.80,NE,39,0.0,0.0,98,0.00,,CLR,0.00,VWS V12.07,2013-06-12 08:40:00,
2013-06-12 03:50:00,50.4,49.9,29.80,North,0,0.0,0.0,98,0.00,,CLR,0.00,VWS V12.07,2013-06-12 08:50:00,
2013-06-12 04:00:00,50.1,49.6,29.80,North,0,0.0,0.0,98,0.00,,CLR,0.00,VWS V12.07,2013-06-12 09:00:00,
2013-06-12 04:10:00,49.9,49.4,29.80,North,0,0.0,0.0,98,0.00,,CLR,0.00,VWS V12.07,2013-06-12 09:10:00,
2013-06-12 04:20:00,49.4,48.6,29.80,North,0,0.0,0.0,97,0.00,,CLR,0.00,VWS V12.07,2013-06-12 09:20:00,
2013-06-12 04:30:00,49.5,49.2,29.79,North,0,0.0,0.0,99,0.00,,CLR,0.00,VWS V12.07,2013-06-12 09:30:00,
2013-06-12 04:40:00,49.5,49.5,29.79,North,0,0.0,0.0,100,0.00,,CLR,0.00,VWS V12.07,2013-06-12 09:40:00,
2013-06-12 04:50:00,49.6,49.6,29.79,NE,45,0.0,2.0,100,0.00,,CLR,0.00,VWS V12.07,2013-06-12 09:50:00,
2013-06-12 05:00:00,49.8,49.8,29.79,NE,45,1.0,3.0,100,0.00,,CLR,0.00,VWS V12.07,2013-06-12 10:00:00,
2013-06-12 05:10:00,49.6,49.6,29.79,NE,45,0.0,0.0,100,0.00,,CLR,0.00,VWS V12.07,2013-06-12 10:10:00,
2013-06-12 05:20:00,49.8,49.8,29.81,NE,45,0.0,0.0,100,0.00,,CLR,0.00,VWS V12.07,2013-06-12 10:20:00,
2013-06-12 05:30:00,49.8,49.8,29.82,NE,45,0.0,0.0,100,0.00,,CLR,0.00,VWS V12.07,2013-06-12 10:30:00,
2013-06-12 05:40:00,49.9,49.9,29.82,NE,45,0.0,0.0,100,0.00,,CLR,0.00,VWS V12.07,2013-06-12 10:40:00,
2013-06-12 05:50:00,50.2,50.2,29.81,NE,45,0.0,0.0,100,0.00,,CLR,0.00,VWS V12.07,2013-06-12 10:50:00,
2013-06-12 06:00:00,50.4,50.4,29.81,NE,45,0.0,0.0,100,0.00,,CLR,0.00,VWS V12.07,2013-06-12 11:00:00,
2013-06-12 06:10:00,50.2,50.2,29.81,NE,45,0.0,0.0,100,0.00,,CLR,0.00,VWS V12.07,2013-06-12 11:10:00,
2013-06-12 06:20:00,49.9,49.9,29.81,NE,45,0.0,0.0,100,0.00,,CLR,0.00,VWS V12.07,2013-06-12 11:20:00,
2013-06-12 06:30:00,49.8,49.8,29.79,NE,45,0.0,0.0,100,0.00,,CLR,0.00,VWS V12.07,2013-06-12 11:30:00,
2013-06-12 06:40:00,50.4,50.4,29.79,NE,45,0.0,0.0,100,0.00,,CLR,0.00,VWS V12.07,2013-06-12 11:40:00,
2013-06-12 06:50:00,51.1,51.1,29.78,NE,45,0.0,0.0,100,0.00,,CLR,0.00,VWS V12.07,2013-06-12 11:50:00,
2013-06-12 07:00:00,51.9,51.9,29.79,NE,45,0.0,0.0,100,0.00,,CLR,0.00,VWS V12.07,2013-06-12 12:00:00,
2013-06-12 07:10:00,52.5,52.5,29.79,NE,45,0.0,0.0,100,0.00,,CLR,0.00,VWS V12.07,2013-06-12 12:10:00,
2013-06-12 07:20:00,53.1,53.1,29.81,NE,45,0.0,0.0,100,0.00,,CLR,0.00,VWS V12.07,2013-06-12 12:20:00,
2013-06-12 07:30:00,53.8,53.8,29.80,NE,45,0.0,0.0,100,0.00,,CLR,0.00,VWS V12.07,2013-06-12 12:30:00,
2013-06-12 07:40:00,54.5,54.5,29.80,NE,45,0.0,0.0,100,0.00,,CLR,0.00,VWS V12.07,2013-06-12 12:40:00,
2013-06-12 07:50:00,56.0,56.0,29.79,NE,45,0.0,0.0,100,0.00,,CLR,0.00,VWS V12.07,2013-06-12 12:50:00,
2013-06-12 08:00:00,57.2,56.6,29.79,NE,45,0.0,0.0,98,0.00,,CLR,0.00,VWS V12.07,2013-06-12 13:00:00,
2013-06-12 08:10:00,58.6,57.2,29.79,NE,45,0.0,0.0,95,0.00,,CLR,0.00,VWS V12.07,2013-06-12 13:10:00,
2013-06-12 08:20:00,60.2,57.9,29.79,NE,45,0.0,0.0,92,0.00,,CLR,0.00,VWS V12.07,2013-06-12 13:20:00,
2013-06-12 08:30:00,62.1,57.5,29.80,NE,45,0.0,0.0,85,0.00,,CLR,0.00,VWS V12.07,2013-06-12 13:30:00,
2013-06-12 08:40:00,63.4,57.5,29.80,NE,45,0.0,1.0,81,0.00,,CLR,0.00,VWS V12.07,2013-06-12 13:40:00,
2013-06-12 08:55:00,50.4,49.9,29.80,North,0,0.0,0.0,98,0.00,,CLR,0.00,VWS V12.07,2013-06-12 13:55:00,
2013-06-12 08:56:00,64.5,57.5,29.78,East,90,0.0,3.0,78,0.00,,CLR,0.00,VWS V12.07,2013-06-12 13:56:00,
2013-06-12 09:00:00,65.5,58.5,29.78,East,79,0.0,1.0,78,0.00,,CLR,0.00,VWS V12.07,2013-06-12 14:00:00,
2013-06-12 09:01:00,65.6,58.6,29.78,East,79,0.0,1.0,78,0.00,,CLR,0.00,VWS V12.07,2013-06-12 14:01:00,
2013-06-12 09:02:00,65.8,58.8,29.78,East,79,1.0,1.0,78,0.00,,CLR,0.00,VWS V12.07,2013-06-12 14:02:00,
2013-06-12 09:05:00,66.1,58.3,29.78,East,79,0.0,1.0,76,0.00,,CLR,0.00,VWS V12.07,2013-06-12 14:05:00,
2013-06-12 09:06:00,66.1,58.3,29.78,East,79,0.0,1.0,76,0.00,,CLR,0.00,VWS V12.07,2013-06-12 14:06:00,
2013-06-12 09:08:00,66.3,58.2,29.78,East,79,0.0,1.0,75,0.00,,CLR,0.00,VWS V12.07,2013-06-12 14:08:00,
2013-06-12 09:10:00,66.6,58.4,29.78,East,79,0.0,1.0,75,0.00,,CLR,0.00,VWS V12.07,2013-06-12 14:10:00,
2013-06-12 09:11:00,66.6,58.4,29.78,East,79,0.0,1.0,75,0.00,,CLR,0.00,VWS V12.07,2013-06-12 14:11:00,
2013-06-12 09:13:00,66.8,57.9,29.78,East,79,0.0,1.0,73,0.00,,CLR,0.00,VWS V12.07,2013-06-12 14:13:00,
2013-06-12 09:15:00,67.1,58.2,29.78,East,79,1.0,1.0,73,0.00,,CLR,0.00,VWS V12.07,2013-06-12 14:15:00,
2013-06-12 09:16:00,67.1,57.4,29.78,East,79,0.0,1.0,71,0.00,,CLR,0.00,VWS V12.07,2013-06-12 14:16:00,
2013-06-12 09:17:00,67.3,57.6,29.78,East,79,0.0,2.0,71,0.00,,CLR,0.00,VWS V12.07,2013-06-12 14:17:00,
2013-06-12 09:18:00,67.4,57.7,29.78,East,79,0.0,2.0,71,0.00,,CLR,0.00,VWS V12.07,2013-06-12 14:18:00,
2013-06-12 09:21:00,67.6,57.9,29.78,East,79,0.0,2.0,71,0.00,,CLR,0.00,VWS V12.07,2013-06-12 14:21:00,
2013-06-12 09:22:00,67.8,58.1,29.78,East,79,0.0,2.0,71,0.00,,CLR,0.00,VWS V12.07,2013-06-12 14:22:00,
2013-06-12 09:23:00,67.9,58.2,29.78,East,79,0.0,2.0,71,0.00,,CLR,0.00,VWS V12.07,2013-06-12 14:23:00,
2013-06-12 09:26:00,68.3,57.8,29.78,East,79,0.0,1.0,69,0.00,,CLR,0.00,VWS V12.07,2013-06-12 14:26:00,
2013-06-12 09:27:00,68.4,57.8,29.78,East,79,0.0,1.0,69,0.00,,CLR,0.00,VWS V12.07,2013-06-12 14:27:00,
2013-06-12 09:28:00,68.6,57.6,29.78,East,79,0.0,1.0,68,0.00,,CLR,0.00,VWS V12.07,2013-06-12 14:28:00,
2013-06-12 09:31:00,68.9,57.1,29.76,East,79,0.0,1.0,66,0.00,,CLR,0.00,VWS V12.07,2013-06-12 14:31:00,
2013-06-12 09:32:00,69.1,57.3,29.76,East,79,0.0,1.0,66,0.00,,CLR,0.00,VWS V12.07,2013-06-12 14:32:00,
2013-06-12 09:33:00,69.1,57.3,29.76,East,79,0.0,1.0,66,0.00,,CLR,0.00,VWS V12.07,2013-06-12 14:33:00,
2013-06-12 09:34:00,69.3,56.6,29.76,East,79,0.0,1.0,64,0.00,,CLR,0.00,VWS V12.07,2013-06-12 14:34:00,
2013-06-12 09:36:00,69.4,57.1,29.76,East,79,0.0,1.0,65,0.00,,CLR,0.00,VWS V12.07,2013-06-12 14:36:00,
2013-06-12 09:37:00,69.6,56.9,29.76,East,79,0.0,1.0,64,0.00,,CLR,0.00,VWS V12.07,2013-06-12 14:37:00,
2013-06-12 09:38:00,69.6,56.5,29.76,East,79,0.0,1.0,63,0.00,,CLR,0.00,VWS V12.07,2013-06-12 14:38:00,
2013-06-12 09:39:00,69.8,56.2,29.76,East,79,0.0,1.0,62,0.00,,CLR,0.00,VWS V12.07,2013-06-12 14:39:00,
2013-06-12 09:40:00,69.9,56.3,29.76,East,79,0.0,1.0,62,0.00,,CLR,0.00,VWS V12.07,2013-06-12 14:40:00,
2013-06-12 09:41:00,69.9,56.3,29.76,East,79,0.0,1.0,62,0.00,,CLR,0.00,VWS V12.07,2013-06-12 14:41:00,
2013-06-12 09:43:00,70.1,56.0,29.75,East,79,0.0,1.0,61,0.00,,CLR,0.00,VWS V12.07,2013-06-12 14:43:00,
2013-06-12 09:45:00,70.3,55.8,29.75,East,79,0.0,1.0,60,0.00,,CLR,0.00,VWS V12.07,2013-06-12 14:45:00,
2013-06-12 09:46:00,70.3,55.3,29.75,East,79,0.0,1.0,59,0.00,,CLR,0.00,VWS V12.07,2013-06-12 14:46:00,
2013-06-12 09:48:00,70.4,55.4,29.75,East,80,0.0,2.0,59,0.00,,CLR,0.00,VWS V12.07,2013-06-12 14:48:00,
2013-06-12 09:49:00,70.4,55.4,29.75,East,80,0.0,2.0,59,0.00,,CLR,0.00,VWS V12.07,2013-06-12 14:49:00,
2013-06-12 09:50:00,70.4,55.9,29.75,East,80,1.0,2.0,60,0.00,,CLR,0.00,VWS V12.07,2013-06-12 14:50:00,
2013-06-12 09:51:00,70.4,55.9,29.75,East,80,0.0,2.0,60,0.00,,CLR,0.00,VWS V12.07,2013-06-12 14:51:00,
2013-06-12 09:54:00,70.4,55.4,29.75,East,80,0.0,2.0,59,0.00,,CLR,0.00,VWS V12.07,2013-06-12 14:54:00,
2013-06-12 09:55:00,70.6,54.6,29.75,East,80,0.0,1.0,57,0.00,,CLR,0.00,VWS V12.07,2013-06-12 14:55:00,
2013-06-12 09:57:00,70.8,55.8,29.75,East,81,0.0,1.0,59,0.00,,CLR,0.00,VWS V12.07,2013-06-12 14:57:00,
2013-06-12 09:59:00,70.9,54.4,29.76,SE,144,1.0,3.0,56,0.00,,CLR,0.00,VWS V12.07,2013-06-12 14:59:00,
2013-06-12 10:00:00,70.9,54.9,29.76,SE,144,0.0,3.0,57,0.00,,CLR,0.00,VWS V12.07,2013-06-12 15:00:00,
2013-06-12 10:02:00,71.1,56.1,29.76,SE,144,0.0,3.0,59,0.00,,CLR,0.00,VWS V12.07,2013-06-12 15:02:00,
2013-06-12 10:04:00,71.3,56.7,29.76,SE,144,0.0,3.0,60,0.00,,CLR,0.00,VWS V12.07,2013-06-12 15:04:00,
2013-06-12 10:05:00,71.5,54.5,29.76,SSE,162,0.0,2.0,55,0.00,,CLR,0.00,VWS V12.07,2013-06-12 15:05:00,
2013-06-12 10:06:00,71.5,54.5,29.76,SSE,162,0.0,2.0,55,0.00,,CLR,0.00,VWS V12.07,2013-06-12 15:06:00,
2013-06-12 10:07:00,71.6,54.1,29.76,SSE,162,0.0,2.0,54,0.00,,CLR,0.00,VWS V12.07,2013-06-12 15:07:00,
2013-06-12 10:09:00,71.6,54.6,29.76,SSE,162,2.0,2.0,55,0.00,,CLR,0.00,VWS V12.07,2013-06-12 15:09:00,
2013-06-12 10:11:00,71.8,53.8,29.76,SSE,162,0.0,2.0,53,0.00,,CLR,0.00,VWS V12.07,2013-06-12 15:11:00,
2013-06-12 10:13:00,72.0,54.5,29.75,SSE,162,0.0,2.0,54,0.00,,CLR,0.00,VWS V12.07,2013-06-12 15:13:00,
2013-06-12 10:14:00,72.1,53.5,29.75,SSE,162,0.0,2.0,52,0.00,,CLR,0.00,VWS V12.07,2013-06-12 15:14:00,
2013-06-12 10:15:00,72.1,53.5,29.75,SSE,162,0.0,1.0,52,0.00,,CLR,0.00,VWS V12.07,2013-06-12 15:15:00,
2013-06-12 10:16:00,72.3,54.2,29.75,SSE,162,0.0,1.0,53,0.00,,CLR,0.00,VWS V12.07,2013-06-12 15:16:00,
2013-06-12 10:17:00,72.3,54.7,29.75,SSE,162,0.0,1.0,54,0.00,,CLR,0.00,VWS V12.07,2013-06-12 15:17:00,
2013-06-12 10:18:00,72.3,53.7,29.75,SSE,162,1.0,1.0,52,0.00,,CLR,0.00,VWS V12.07,2013-06-12 15:18:00,
2013-06-12 10:20:00,72.3,53.7,29.75,SSE,162,2.0,3.0,52,0.00,,CLR,0.00,VWS V12.07,2013-06-12 15:20:00,
2013-06-12 10:21:00,72.3,53.7,29.75,SSE,162,0.0,3.0,52,0.00,,CLR,0.00,VWS V12.07,2013-06-12 15:21:00,
2013-06-12 10:22:00,72.3,53.7,29.75,SSE,162,1.0,3.0,52,0.00,,CLR,0.00,VWS V12.07,2013-06-12 15:22:00,
2013-06-12 10:23:00,72.3,53.2,29.75,SSE,162,0.0,3.0,51,0.00,,CLR,0.00,VWS V12.07,2013-06-12 15:23:00,
2013-06-12 10:25:00,72.5,52.3,29.75,SSE,162,0.0,0.0,49,0.00,,CLR,0.00,VWS V12.07,2013-06-12 15:25:00,
2013-06-12 10:27:00,72.8,53.1,29.75,SSE,162,0.0,2.0,50,0.00,,CLR,0.00,VWS V12.07,2013-06-12 15:27:00,
2013-06-12 10:28:00,73.0,52.2,29.75,SSE,162,0.0,2.0,48,0.00,,CLR,0.00,VWS V12.07,2013-06-12 15:28:00,
2013-06-12 10:30:00,73.2,51.8,29.75,SSE,162,0.0,2.0,47,0.00,,CLR,0.00,VWS V12.07,2013-06-12 15:30:00,
2013-06-12 10:31:00,73.2,51.8,29.75,SSE,162,1.0,2.0,47,0.00,,CLR,0.00,VWS V12.07,2013-06-12 15:31:00,
2013-06-12 10:32:00,73.3,53.6,29.75,SSE,162,0.0,2.0,50,0.00,,CLR,0.00,VWS V12.07,2013-06-12 15:32:00,
2013-06-12 10:34:00,73.3,50.7,29.75,South,181,1.0,2.0,45,0.00,,CLR,0.00,VWS V12.07,2013-06-12 15:34:00,
2013-06-12 10:36:00,73.3,51.9,29.75,South,181,1.0,2.0,47,0.00,,CLR,0.00,VWS V12.07,2013-06-12 15:36:00,
2013-06-12 10:37:00,73.3,50.7,29.75,South,181,1.0,2.0,45,0.00,,CLR,0.00,VWS V12.07,2013-06-12 15:37:00,
2013-06-12 10:38:00,73.3,50.7,29.75,South,181,1.0,2.0,45,0.00,,CLR,0.00,VWS V12.07,2013-06-12 15:38:00,
2013-06-12 10:39:00,73.3,51.9,29.75,South,181,0.0,2.0,47,0.00,,CLR,0.00,VWS V12.07,2013-06-12 15:39:00,
2013-06-12 10:41:00,73.5,52.1,29.75,South,181,0.0,2.0,47,0.00,,CLR,0.00,VWS V12.07,2013-06-12 15:41:00,
2013-06-12 10:42:00,73.7,51.7,29.75,South,180,1.0,2.0,46,0.00,,CLR,0.00,VWS V12.07,2013-06-12 15:42:00,
2013-06-12 10:43:00,73.7,49.8,29.75,South,169,2.0,3.0,43,0.00,,CLR,0.00,VWS V12.07,2013-06-12 15:43:00,
2013-06-12 10:44:00,73.7,49.8,29.75,South,169,1.0,3.0,43,0.00,,CLR,0.00,VWS V12.07,2013-06-12 15:44:00,
2013-06-12 10:46:00,73.7,47.9,29.75,South,177,1.0,3.0,40,0.00,,CLR,0.00,VWS V12.07,2013-06-12 15:46:00,
2013-06-12 10:47:00,73.7,48.6,29.75,South,177,1.0,3.0,41,0.00,,CLR,0.00,VWS V12.07,2013-06-12 15:47:00,
2013-06-12 10:48:00,73.9,48.7,29.75,South,177,0.0,3.0,41,0.00,,CLR,0.00,VWS V12.07,2013-06-12 15:48:00,
2013-06-12 10:49:00,74.0,48.8,29.75,South,177,0.0,3.0,41,0.00,,CLR,0.00,VWS V12.07,2013-06-12 15:49:00,
2013-06-12 10:52:00,74.4,47.9,29.75,South,177,1.0,3.0,39,0.00,,CLR,0.00,VWS V12.07,2013-06-12 15:52:00,
2013-06-12 10:53:00,74.4,47.9,29.75,South,187,2.0,4.0,39,0.00,,CLR,0.00,VWS V12.07,2013-06-12 15:53:00,
2013-06-12 10:54:00,74.6,48.7,29.75,South,187,0.0,4.0,40,0.00,,CLR,0.00,VWS V12.07,2013-06-12 15:54:00,
2013-06-12 10:55:00,74.7,50.1,29.75,South,187,0.0,1.0,42,0.00,,CLR,0.00,VWS V12.07,2013-06-12 15:55:00,
2013-06-12 10:57:00,74.9,49.0,29.75,SE,146,2.0,4.0,40,0.00,,CLR,0.00,VWS V12.07,2013-06-12 15:57:00,
2013-06-12 10:58:00,74.7,48.8,29.75,SE,146,2.0,4.0,40,0.00,,CLR,0.00,VWS V12.07,2013-06-12 15:58:00,
2013-06-12 10:59:00,74.7,50.7,29.75,SSE,147,1.0,4.0,43,0.00,,CLR,0.00,VWS V12.07,2013-06-12 15:59:00,
2013-06-12 11:01:00,74.6,48.0,29.75,SSE,147,0.0,4.0,39,0.00,,CLR,0.00,VWS V12.07,2013-06-12 16:01:00,
2013-06-12 11:02:00,74.7,49.5,29.75,SSE,147,0.0,4.0,41,0.00,,CLR,0.00,VWS V12.07,2013-06-12 16:02:00,
2013-06-12 11:03:00,74.9,49.6,29.75,SSE,147,1.0,4.0,41,0.00,,CLR,0.00,VWS V12.07,2013-06-12 16:03:00,
2013-06-12 11:05:00,74.9,51.5,29.75,SSE,147,0.0,4.0,44,0.00,,CLR,0.00,VWS V12.07,2013-06-12 16:05:00,
2013-06-12 11:06:00,74.9,49.0,29.75,SSE,148,1.0,4.0,40,0.00,,CLR,0.00,VWS V12.07,2013-06-12 16:06:00,
2013-06-12 11:08:00,74.7,48.1,29.75,SSE,148,1.0,4.0,39,0.00,,CLR,0.00,VWS V12.07,2013-06-12 16:08:00,
2013-06-12 11:10:00,74.7,50.7,29.75,SSW,193,3.0,3.0,43,0.00,,CLR,0.00,VWS V12.07,2013-06-12 16:10:00,
2013-06-12 11:11:00,74.6,48.7,29.75,SSW,193,1.0,3.0,40,0.00,,CLR,0.00,VWS V12.07,2013-06-12 16:11:00,
2013-06-12 11:13:00,74.6,48.7,29.75,SSW,193,0.0,3.0,40,0.00,,CLR,0.00,VWS V12.07,2013-06-12 16:13:00,
2013-06-12 11:15:00,74.7,47.4,29.75,SSW,193,1.0,1.0,38,0.00,,CLR,0.00,VWS V12.07,2013-06-12 16:15:00,
2013-06-12 11:16:00,75.1,49.2,29.75,SSE,153,2.0,2.0,40,0.00,,CLR,0.00,VWS V12.07,2013-06-12 16:16:00,
2013-06-12 11:18:00,75.1,47.8,29.75,SE,142,0.0,3.0,38,0.00,,CLR,0.00,VWS V12.07,2013-06-12 16:18:00,
2013-06-12 11:19:00,75.1,48.5,29.75,SE,142,0.0,3.0,39,0.00,,CLR,0.00,VWS V12.07,2013-06-12 16:19:00,
2013-06-12 11:21:00,75.1,49.2,29.75,SSE,147,1.0,3.0,40,0.00,,CLR,0.00,VWS V12.07,2013-06-12 16:21:00,
2013-06-12 11:23:00,74.9,50.3,29.75,SSE,147,2.0,3.0,42,0.00,,CLR,0.00,VWS V12.07,2013-06-12 16:23:00,
2013-06-12 11:24:00,74.9,50.9,29.75,SSE,147,0.0,3.0,43,0.00,,CLR,0.00,VWS V12.07,2013-06-12 16:24:00,
2013-06-12 11:26:00,74.9,48.3,29.75,SSE,147,1.0,2.0,39,0.00,,CLR,0.00,VWS V12.07,2013-06-12 16:26:00,
2013-06-12 11:29:00,74.7,49.5,29.75,SSE,147,0.0,2.0,41,0.00,,CLR,0.00,VWS V12.07,2013-06-12 16:29:00,
2013-06-12 11:31:00,74.7,47.4,29.75,SSE,147,1.0,2.0,38,0.00,,CLR,0.00,VWS V12.07,2013-06-12 16:31:00,
2013-06-12 11:32:00,74.9,49.0,29.75,SSE,147,0.0,2.0,40,0.00,,CLR,0.00,VWS V12.07,2013-06-12 16:32:00,
2013-06-12 11:34:00,75.1,49.2,29.75,SSE,149,1.0,2.0,40,0.00,,CLR,0.00,VWS V12.07,2013-06-12 16:34:00,
2013-06-12 11:35:00,75.3,49.3,29.75,SSE,149,0.0,2.0,40,0.00,,CLR,0.00,VWS V12.07,2013-06-12 16:35:00,
2013-06-12 11:37:00,75.4,50.7,29.75,SSE,149,1.0,2.0,42,0.00,,CLR,0.00,VWS V12.07,2013-06-12 16:37:00,
2013-06-12 11:39:00,75.8,48.4,29.75,SSE,149,0.0,2.0,38,0.00,,CLR,0.00,VWS V12.07,2013-06-12 16:39:00,
2013-06-12 11:40:00,75.8,48.4,29.75,SSE,149,0.0,2.0,38,0.00,,CLR,0.00,VWS V12.07,2013-06-12 16:40:00,
2013-06-12 11:41:00,75.8,48.4,29.75,SSE,149,0.0,2.0,38,0.00,,CLR,0.00,VWS V12.07,2013-06-12 16:41:00,
2013-06-12 11:42:00,76.0,48.6,29.75,SSE,149,1.0,2.0,38,0.00,,CLR,0.00,VWS V12.07,2013-06-12 16:42:00,
2013-06-12 11:43:00,75.8,48.4,29.75,SSE,149,1.0,2.0,38,0.00,,CLR,0.00,VWS V12.07,2013-06-12 16:43:00,
2013-06-12 11:44:00,75.8,50.5,29.75,SSE,149,1.0,0.0,41,0.00,,CLR,0.00,VWS V12.07,2013-06-12 16:44:00,
2013-06-12 11:46:00,76.0,50.0,29.75,SSE,149,1.0,1.0,40,0.00,,CLR,0.00,VWS V12.07,2013-06-12 16:46:00,
2013-06-12 11:47:00,76.0,51.9,29.75,SSE,149,1.0,1.0,43,0.00,,CLR,0.00,VWS V12.07,2013-06-12 16:47:00,
2013-06-12 11:48:00,76.0,52.5,29.75,SSE,149,2.0,2.0,44,0.00,,CLR,0.00,VWS V12.07,2013-06-12 16:48:00,
2013-06-12 11:51:00,75.8,49.8,29.75,SSE,149,2.0,2.0,40,0.00,,BKN110,0.00,VWS V12.07,2013-06-12 16:51:00,
2013-06-12 11:52:00,75.6,50.9,29.75,SSE,149,1.0,3.0,42,0.00,,BKN110,0.00,VWS V12.07,2013-06-12 16:52:00,
2013-06-12 11:53:00,75.8,50.5,29.75,SSE,150,1.0,3.0,41,0.00,,BKN110,0.00,VWS V12.07,2013-06-12 16:53:00,
2013-06-12 11:54:00,76.0,49.3,29.75,SSE,150,0.0,3.0,39,0.00,,BKN110,0.00,VWS V12.07,2013-06-12 16:54:00,
2013-06-12 11:56:00,76.1,51.4,29.75,SSE,159,1.0,3.0,42,0.00,,BKN110,0.00,VWS V12.07,2013-06-12 16:56:00,
2013-06-12 11:57:00,76.1,48.0,29.75,SSE,159,0.0,3.0,37,0.00,,BKN110,0.00,VWS V12.07,2013-06-12 16:57:00,
2013-06-12 11:58:00,76.0,47.9,29.75,SSE,159,1.0,3.0,37,0.00,,BKN110,0.00,VWS V12.07,2013-06-12 16:58:00,
2013-06-12 11:59:00,75.8,48.4,29.75,SSE,159,0.0,3.0,38,0.00,,BKN110,0.00,VWS V12.07,2013-06-12 16:59:00,
2013-06-12 12:01:00,75.8,50.5,29.75,SSE,159,0.0,3.0,41,0.00,,BKN110,0.00,VWS V12.07,2013-06-12 17:01:00,
2013-06-12 12:02:00,75.8,50.5,29.75,SSE,159,0.0,3.0,41,0.00,,BKN110,0.00,VWS V12.07,2013-06-12 17:02:00,
2013-06-12 12:03:00,75.8,51.7,29.75,SSE,159,1.0,3.0,43,0.00,,BKN110,0.00,VWS V12.07,2013-06-12 17:03:00,
2013-06-12 12:04:00,75.8,50.5,29.75,SSE,159,1.0,3.0,41,0.00,,BKN110,0.00,VWS V12.07,2013-06-12 17:04:00,
2013-06-12 12:07:00,75.8,51.1,29.75,SSE,159,1.0,3.0,42,0.00,,BKN110,0.00,VWS V12.07,2013-06-12 17:07:00,
2013-06-12 12:08:00,75.6,48.2,29.75,SSE,159,1.0,0.0,38,0.00,,BKN110,0.00,VWS V12.07,2013-06-12 17:08:00,
2013-06-12 12:09:00,75.6,48.2,29.75,SSE,159,1.0,3.0,38,0.00,,BKN110,0.00,VWS V12.07,2013-06-12 17:09:00,
2013-06-12 12:13:00,76.0,49.3,29.75,SSE,159,0.0,3.0,39,0.00,,BKN110,0.00,VWS V12.07,2013-06-12 17:13:00,
2013-06-12 12:14:00,76.0,50.0,29.73,SSE,159,1.0,3.0,40,0.00,,BKN110,0.00,VWS V12.07,2013-06-12 17:14:00,
2013-06-12 12:18:00,76.3,50.2,29.73,SSE,159,1.0,2.0,40,0.00,,BKN110,0.00,VWS V12.07,2013-06-12 17:18:00,
2013-06-12 12:19:00,76.5,49.7,29.73,SSE,159,1.0,2.0,39,0.00,,BKN110,0.00,VWS V12.07,2013-06-12 17:19:00,
2013-06-12 12:21:00,76.0,47.9,29.73,SSE,165,1.0,3.0,37,0.00,,BKN110,0.00,VWS V12.07,2013-06-12 17:21:00,
2013-06-12 12:23:00,76.1,51.4,29.73,SSE,165,1.0,3.0,42,0.00,,BKN110,0.00,VWS V12.07,2013-06-12 17:23:00,
2013-06-12 12:24:00,76.1,52.6,29.73,SSE,165,0.0,3.0,44,0.00,,BKN110,0.00,VWS V12.07,2013-06-12 17:24:00,
2013-06-12 12:26:00,76.3,52.8,29.73,SSE,165,2.0,2.0,44,0.00,,BKN110,0.00,VWS V12.07,2013-06-12 17:26:00,
2013-06-12 12:29:00,76.5,51.1,29.74,SSE,165,0.0,2.0,41,0.00,,BKN110,0.00,VWS V12.07,2013-06-12 17:29:00,
2013-06-12 12:31:00,76.7,53.8,29.74,SSE,165,2.0,2.0,45,0.00,,BKN110,0.00,VWS V12.07,2013-06-12 17:31:00,
2013-06-12 12:34:00,76.8,48.6,29.74,SSE,165,1.0,2.0,37,0.00,,BKN110,0.00,VWS V12.07,2013-06-12 17:34:00,
2013-06-12 12:35:00,76.7,49.2,29.74,SSE,165,0.0,2.0,38,0.00,,BKN110,0.00,VWS V12.07,2013-06-12 17:35:00,
2013-06-12 12:37:00,76.7,50.6,29.74,SSE,165,1.0,2.0,40,0.00,,BKN110,0.00,VWS V12.07,2013-06-12 17:37:00,
2013-06-12 12:40:00,76.8,50.0,29.74,SSE,165,0.0,2.0,39,0.00,,CLR,0.00,VWS V12.07,2013-06-12 17:40:00,
2013-06-12 12:42:00,77.2,51.7,29.74,SSE,165,1.0,2.0,41,0.00,,CLR,0.00,VWS V12.07,2013-06-12 17:42:00,
2013-06-12 12:45:00,76.7,49.2,29.73,SSE,165,1.0,2.0,38,0.00,,CLR,0.00,VWS V12.07,2013-06-12 17:45:00,
2013-06-12 12:46:00,76.7,49.9,29.73,SSE,165,0.0,2.0,39,0.00,,CLR,0.00,VWS V12.07,2013-06-12 17:46:00,
2013-06-12 12:47:00,76.7,49.2,29.73,SSE,165,0.0,2.0,38,0.00,,CLR,0.00,VWS V12.07,2013-06-12 17:47:00,
2013-06-12 12:50:00,77.0,49.5,29.73,SSE,165,0.0,2.0,38,0.00,,CLR,0.00,VWS V12.07,2013-06-12 17:50:00,
2013-06-12 12:51:00,77.0,48.8,29.73,SSE,165,0.0,2.0,37,0.00,,CLR,0.00,VWS V12.07,2013-06-12 17:51:00,
2013-06-12 12:53:00,76.8,49.3,29.73,SSE,165,1.0,2.0,38,0.00,,CLR,0.00,VWS V12.07,2013-06-12 17:53:00,
2013-06-12 12:56:00,76.8,51.3,29.73,SSE,165,1.0,2.0,41,0.00,,CLR,0.00,VWS V12.07,2013-06-12 17:56:00,
2013-06-12 12:57:00,77.0,52.8,29.73,SSE,165,0.0,2.0,43,0.00,,CLR,0.00,VWS V12.07,2013-06-12 17:57:00,
2013-06-12 12:58:00,77.2,51.7,29.73,SSE,165,1.0,2.0,41,0.00,,CLR,0.00,VWS V12.07,2013-06-12 17:58:00,
2013-06-12 13:01:00,77.7,49.4,29.73,SSE,165,3.0,3.0,37,0.00,,CLR,0.00,VWS V12.07,2013-06-12 18:01:00,
2013-06-12 13:02:00,77.9,50.3,29.73,SSE,165,0.0,3.0,38,0.00,,CLR,0.00,VWS V12.07,2013-06-12 18:02:00,
2013-06-12 13:03:00,77.7,48.7,29.73,SSE,165,0.0,3.0,36,0.00,,CLR,0.00,VWS V12.07,2013-06-12 18:03:00,
2013-06-12 13:06:00,77.4,48.4,29.73,South,176,0.0,3.0,36,0.00,,CLR,0.00,VWS V12.07,2013-06-12 18:06:00,
2013-06-12 13:07:00,77.4,49.1,29.73,South,176,2.0,3.0,37,0.00,,CLR,0.00,VWS V12.07,2013-06-12 18:07:00,
2013-06-12 13:09:00,77.4,50.5,29.73,SE,140,2.0,4.0,39,0.00,,CLR,0.00,VWS V12.07,2013-06-12 18:09:00,
2013-06-12 13:11:00,77.4,49.8,29.73,SSE,153,2.0,4.0,38,0.00,,CLR,0.00,VWS V12.07,2013-06-12 18:11:00,
2013-06-12 13:12:00,77.2,50.3,29.73,SSE,150,4.0,4.0,39,0.00,,CLR,0.00,VWS V12.07,2013-06-12 18:12:00,
2013-06-12 13:15:00,77.0,50.9,29.73,SE,132,3.0,3.0,40,0.00,,CLR,0.00,VWS V12.07,2013-06-12 18:15:00,
2013-06-12 13:16:00,77.4,51.9,29.73,SE,132,2.0,3.0,41,0.00,,CLR,0.00,VWS V12.07,2013-06-12 18:16:00,
2013-06-12 13:17:00,77.6,52.7,29.73,SE,132,0.0,3.0,42,0.00,,CLR,0.00,VWS V12.07,2013-06-12 18:17:00,
2013-06-12 13:18:00,77.7,52.8,29.73,SE,132,0.0,3.0,42,0.00,,CLR,0.00,VWS V12.07,2013-06-12 18:18:00,
2013-06-12 13:20:00,77.9,52.3,29.73,SE,132,0.0,3.0,41,0.00,,CLR,0.00,VWS V12.07,2013-06-12 18:20:00,
2013-06-12 13:21:00,78.1,50.5,29.73,SE,132,1.0,3.0,38,0.00,,CLR,0.00,VWS V12.07,2013-06-12 18:21:00,
2013-06-12 13:23:00,78.1,50.5,29.73,SE,132,1.0,3.0,38,0.00,,CLR,0.00,VWS V12.07,2013-06-12 18:23:00,
2013-06-12 13:25:00,78.3,50.6,29.73,SE,132,3.0,3.0,38,0.00,,CLR,0.00,VWS V12.07,2013-06-12 18:25:00,
2013-06-12 13:26:00,78.1,49.7,29.73,SE,132,2.0,3.0,37,0.00,,CLR,0.00,VWS V12.07,2013-06-12 18:26:00,
2013-06-12 13:28:00,78.3,50.6,29.73,SE,142,0.0,3.0,38,0.00,,CLR,0.00,VWS V12.07,2013-06-12 18:28:00,
2013-06-12 13:30:00,78.1,50.5,29.73,SE,142,1.0,3.0,38,0.00,,CLR,0.00,VWS V12.07,2013-06-12 18:30:00,
2013-06-12 13:32:00,78.1,51.8,29.73,SE,142,1.0,3.0,40,0.00,,CLR,0.00,VWS V12.07,2013-06-12 18:32:00,
2013-06-12 13:33:00,78.1,50.5,29.73,SE,142,3.0,3.0,38,0.00,,CLR,0.00,VWS V12.07,2013-06-12 18:33:00,
2013-06-12 13:34:00,78.1,50.5,29.73,SE,142,3.0,3.0,38,0.00,,CLR,0.00,VWS V12.07,2013-06-12 18:34:00,
2013-06-12 13:35:00,78.1,51.2,29.73,SE,142,0.0,2.0,39,0.00,,CLR,0.00,VWS V12.07,2013-06-12 18:35:00,
2013-06-12 13:37:00,78.1,51.8,29.73,SSE,153,0.0,2.0,40,0.00,,CLR,0.00,VWS V12.07,2013-06-12 18:37:00,
2013-06-12 13:39:00,78.1,49.7,29.73,SSE,153,2.0,2.0,37,0.00,,SCT060,0.00,VWS V12.07,2013-06-12 18:39:00,
2013-06-12 13:40:00,78.1,49.0,29.73,SE,145,1.0,5.0,36,0.00,,SCT060,0.00,VWS V12.07,2013-06-12 18:40:00,
2013-06-12 13:43:00,78.1,53.2,29.73,SSE,168,2.0,5.0,42,0.00,,SCT060,0.00,VWS V12.07,2013-06-12 18:43:00,
2013-06-12 13:44:00,77.9,50.3,29.72,SSE,168,0.0,5.0,38,0.00,,SCT060,0.00,VWS V12.07,2013-06-12 18:44:00,
2013-06-12 13:45:00,77.9,50.3,29.72,SSE,156,0.0,2.0,38,0.00,,SCT060,0.00,VWS V12.07,2013-06-12 18:45:00,
2013-06-12 13:46:00,77.9,52.3,29.72,SSE,156,0.0,2.0,41,0.00,,SCT060,0.00,VWS V12.07,2013-06-12 18:46:00,
2013-06-12 13:48:00,78.1,51.8,29.72,SSE,156,0.0,2.0,40,0.00,,SCT060,0.00,VWS V12.07,2013-06-12 18:48:00,
2013-06-12 13:49:00,78.3,54.6,29.72,SSE,156,1.0,2.0,44,0.00,,SCT060,0.00,VWS V12.07,2013-06-12 18:49:00,
2013-06-12 13:50:00,78.5,54.8,29.72,SSE,158,1.0,2.0,44,0.00,,CLR,0.00,VWS V12.07,2013-06-12 18:50:00,
2013-06-12 13:51:00,78.6,54.9,29.72,SSE,158,0.0,2.0,44,0.00,,CLR,0.00,VWS V12.07,2013-06-12 18:51:00,
2013-06-12 13:53:00,78.3,53.3,29.72,SSE,158,0.0,2.0,42,0.00,,CLR,0.00,VWS V12.07,2013-06-12 18:53:00,
2013-06-12 13:54:00,78.1,52.5,29.72,SSE,158,0.0,2.0,41,0.00,,CLR,0.00,VWS V12.07,2013-06-12 18:54:00,
2013-06-12 13:55:00,78.3,52.7,29.72,SSE,158,0.0,1.0,41,0.00,,CLR,0.00,VWS V12.07,2013-06-12 18:55:00,
2013-06-12 13:56:00,78.3,54.6,29.72,SSE,158,0.0,1.0,44,0.00,,CLR,0.00,VWS V12.07,2013-06-12 18:56:00,
2013-06-12 13:58:00,78.5,52.9,29.72,SSE,158,0.0,1.0,41,0.00,,CLR,0.00,VWS V12.07,2013-06-12 18:58:00,
2013-06-12 14:00:00,78.5,52.2,29.72,SSE,158,0.0,2.0,40,0.00,,CLR,0.00,VWS V12.07,2013-06-12 19:00:00,
2013-06-12 14:01:00,78.5,53.5,29.72,SSE,158,0.0,2.0,42,0.00,,CLR,0.00,VWS V12.07,2013-06-12 19:01:00,
2013-06-12 14:04:00,78.6,50.9,29.72,SSE,158,0.0,2.0,38,0.00,,CLR,0.00,VWS V12.07,2013-06-12 19:04:00,
2013-06-12 14:05:00,78.6,51.6,29.72,SSE,159,0.0,2.0,39,0.00,,CLR,0.00,VWS V12.07,2013-06-12 19:05:00,
2013-06-12 14:06:00,78.5,50.8,29.72,SSE,159,1.0,2.0,38,0.00,,CLR,0.00,VWS V12.07,2013-06-12 19:06:00,
2013-06-12 14:07:00,78.5,50.8,29.72,SSE,159,0.0,2.0,38,0.00,,CLR,0.00,VWS V12.07,2013-06-12 19:07:00,
2013-06-12 14:09:00,78.1,53.2,29.72,SSE,159,0.0,2.0,42,0.00,,CLR,0.00,VWS V12.07,2013-06-12 19:09:00,
2013-06-12 14:10:00,77.7,51.5,29.72,SSE,159,0.0,2.0,40,0.00,,CLR,0.00,VWS V12.07,2013-06-12 19:10:00,
2013-06-12 14:11:00,77.7,52.2,29.72,SSE,159,1.0,2.0,41,0.00,,CLR,0.00,VWS V12.07,2013-06-12 19:11:00,
2013-06-12 14:12:00,77.6,54.0,29.72,SSE,159,0.0,2.0,44,0.00,,CLR,0.00,VWS V12.07,2013-06-12 19:12:00,
2013-06-12 14:14:00,77.4,51.9,29.72,SSE,159,2.0,3.0,41,0.00,,CLR,0.00,VWS V12.07,2013-06-12 19:14:00,
2013-06-12 14:16:00,77.2,50.3,29.72,SSE,159,1.0,3.0,39,0.00,,CLR,0.00,VWS V12.07,2013-06-12 19:16:00,
2013-06-12 14:17:00,77.0,50.2,29.72,SSE,159,0.0,3.0,39,0.00,,CLR,0.00,VWS V12.07,2013-06-12 19:17:00,
2013-06-12 14:19:00,77.4,51.2,29.72,SSE,159,0.0,3.0,40,0.00,,CLR,0.00,VWS V12.07,2013-06-12 19:19:00,
2013-06-12 14:21:00,77.6,50.7,29.72,SSE,159,0.0,3.0,39,0.00,,CLR,0.00,VWS V12.07,2013-06-12 19:21:00,
2013-06-12 14:22:00,77.7,52.2,29.72,SSE,159,0.0,3.0,41,0.00,,CLR,0.00,VWS V12.07,2013-06-12 19:22:00,
2013-06-12 14:23:00,77.7,51.5,29.72,SSE,159,0.0,3.0,40,0.00,,CLR,0.00,VWS V12.07,2013-06-12 19:23:00,
2013-06-12 14:25:00,77.7,50.8,29.72,SSE,159,0.0,0.0,39,0.00,,CLR,0.00,VWS V12.07,2013-06-12 19:25:00,
2013-06-12 14:26:00,77.6,50.7,29.72,SSE,159,1.0,1.0,39,0.00,,CLR,0.00,VWS V12.07,2013-06-12 19:26:00,
2013-06-12 14:27:00,77.6,50.7,29.72,SSE,159,0.0,1.0,39,0.00,,CLR,0.00,VWS V12.07,2013-06-12 19:27:00,
2013-06-12 14:28:00,77.6,51.4,29.72,SSE,159,0.0,1.0,40,0.00,,CLR,0.00,VWS V12.07,2013-06-12 19:28:00,
2013-06-12 14:30:00,77.7,50.8,29.72,SSE,159,0.0,1.0,39,0.00,,CLR,0.00,VWS V12.07,2013-06-12 19:30:00,
2013-06-12 14:31:00,77.7,51.5,29.72,SSE,159,0.0,1.0,40,0.00,,CLR,0.00,VWS V12.07,2013-06-12 19:31:00,
2013-06-12 14:32:00,77.7,50.1,29.72,SSE,159,1.0,2.0,38,0.00,,CLR,0.00,VWS V12.07,2013-06-12 19:32:00,
2013-06-12 14:33:00,77.7,51.5,29.72,SSE,159,1.0,2.0,40,0.00,,CLR,0.00,VWS V12.07,2013-06-12 19:33:00,
2013-06-12 14:35:00,77.7,52.8,29.72,SSE,159,0.0,2.0,42,0.00,,CLR,0.00,VWS V12.07,2013-06-12 19:35:00,
2013-06-12 14:36:00,77.7,52.2,29.72,SSE,159,0.0,2.0,41,0.00,,CLR,0.00,VWS V12.07,2013-06-12 19:36:00,
2013-06-12 14:37:00,77.9,52.3,29.72,SSE,159,0.0,2.0,41,0.00,,CLR,0.00,VWS V12.07,2013-06-12 19:37:00,
2013-06-12 14:38:00,77.9,53.6,29.72,SSE,159,0.0,2.0,43,0.00,,CLR,0.00,VWS V12.07,2013-06-12 19:38:00,
2013-06-12 14:40:00,78.1,51.8,29.72,SSE,159,0.0,2.0,40,0.00,,CLR,0.00,VWS V12.07,2013-06-12 19:40:00,
2013-06-12 14:41:00,78.3,54.0,29.72,SSE,159,1.0,2.0,43,0.00,,CLR,0.00,VWS V12.07,2013-06-12 19:41:00,
2013-06-12 14:42:00,78.5,52.9,29.72,SSE,159,1.0,2.0,41,0.00,,CLR,0.00,VWS V12.07,2013-06-12 19:42:00,
2013-06-12 14:43:00,78.5,52.9,29.71,SSE,159,0.0,2.0,41,0.00,,CLR,0.00,VWS V12.07,2013-06-12 19:43:00,
2013-06-12 14:46:00,78.1,51.8,29.71,SSE,159,0.0,1.0,40,0.00,,CLR,0.00,VWS V12.07,2013-06-12 19:46:00,
2013-06-12 14:48:00,77.9,52.3,29.71,SSE,159,0.0,1.0,41,0.00,,CLR,0.00,VWS V12.07,2013-06-12 19:48:00,
2013-06-12 14:51:00,77.9,52.3,29.71,SSE,159,0.0,1.0,41,0.00,,CLR,0.00,VWS V12.07,2013-06-12 19:51:00,
2013-06-12 14:52:00,77.9,53.0,29.71,SSE,159,0.0,1.0,42,0.00,,CLR,0.00,VWS V12.07,2013-06-12 19:52:00,
2013-06-12 14:53:00,78.1,54.4,29.71,SSE,159,0.0,1.0,44,0.00,,CLR,0.00,VWS V12.07,2013-06-12 19:53:00,
2013-06-12 14:54:00,78.1,54.4,29.71,SSE,159,0.0,1.0,44,0.00,,CLR,0.00,VWS V12.07,2013-06-12 19:54:00,
2013-06-12 14:56:00,78.1,55.0,29.71,SSE,159,0.0,0.0,45,0.00,,CLR,0.00,VWS V12.07,2013-06-12 19:56:00,
2013-06-12 14:58:00,78.1,55.7,29.71,SSE,159,0.0,0.0,46,0.00,,CLR,0.00,VWS V12.07,2013-06-12 19:58:00,
2013-06-12 14:59:00,78.1,54.4,29.71,SSE,159,0.0,0.0,44,0.00,,CLR,0.00,VWS V12.07,2013-06-12 19:59:00,
2013-06-12 15:01:00,77.9,53.6,29.71,SSE,159,0.0,1.0,43,0.00,,CLR,0.00,VWS V12.07,2013-06-12 20:01:00,
2013-06-12 15:03:00,78.1,54.4,29.71,SSE,159,0.0,1.0,44,0.00,,CLR,0.00,VWS V12.07,2013-06-12 20:03:00,
2013-06-12 15:04:00,77.9,54.3,29.71,SSE,159,0.0,1.0,44,0.00,,CLR,0.00,VWS V12.07,2013-06-12 20:04:00,
2013-06-12 15:06:00,78.1,55.0,29.71,SSE,159,0.0,1.0,45,0.00,,CLR,0.00,VWS V12.07,2013-06-12 20:06:00,
2013-06-12 15:08:00,78.1,53.8,29.71,SSE,159,3.0,3.0,43,0.00,,CLR,0.00,VWS V12.07,2013-06-12 20:08:00,
2013-06-12 15:09:00,77.9,53.0,29.71,SSE,159,3.0,4.0,42,0.00,,CLR,0.00,VWS V12.07,2013-06-12 20:09:00,
2013-06-12 15:11:00,77.6,50.7,29.71,SSE,159,0.0,4.0,39,0.00,,CLR,0.00,VWS V12.07,2013-06-12 20:11:00,
2013-06-12 15:13:00,77.6,50.7,29.71,SSE,159,2.0,4.0,39,0.00,,CLR,0.00,VWS V12.07,2013-06-12 20:13:00,
2013-06-12 15:14:00,77.6,50.7,29.71,SSE,159,2.0,4.0,39,0.00,,CLR,0.00,VWS V12.07,2013-06-12 20:14:00,
2013-06-12 15:18:00,77.4,50.5,29.71,SSE,159,0.0,3.0,39,0.00,,CLR,0.00,VWS V12.07,2013-06-12 20:18:00,
2013-06-12 15:19:00,77.4,51.2,29.71,SSE,159,0.0,3.0,40,0.00,,CLR,0.00,VWS V12.07,2013-06-12 20:19:00,
2013-06-12 15:20:00,77.4,53.2,29.71,SSE,159,0.0,3.0,43,0.00,,CLR,0.00,VWS V12.07,2013-06-12 20:20:00,
2013-06-12 15:23:00,77.2,52.4,29.71,SSE,159,0.0,3.0,42,0.00,,CLR,0.00,VWS V12.07,2013-06-12 20:23:00,
2013-06-12 15:24:00,77.0,50.9,29.71,SSE,159,0.0,3.0,40,0.00,,CLR,0.00,VWS V12.07,2013-06-12 20:24:00,
2013-06-12 15:25:00,77.0,50.2,29.71,SSE,159,0.0,0.0,39,0.00,,CLR,0.00,VWS V12.07,2013-06-12 20:25:00,
2013-06-12 15:26:00,77.0,49.5,29.71,SSE,159,0.0,0.0,38,0.00,,CLR,0.00,VWS V12.07,2013-06-12 20:26:00,
2013-06-12 15:28:00,77.2,51.0,29.71,SSE,159,0.0,0.0,40,0.00,,CLR,0.00,VWS V12.07,2013-06-12 20:28:00,
2013-06-12 15:29:00,77.4,53.2,29.71,SSE,159,0.0,0.0,43,0.00,,CLR,0.00,VWS V12.07,2013-06-12 20:29:00,
2013-06-12 15:30:00,77.4,53.8,29.71,SSE,159,0.0,0.0,44,0.00,,CLR,0.00,VWS V12.07,2013-06-12 20:30:00,
2013-06-12 15:31:00,77.4,50.5,29.71,SSE,159,0.0,0.0,39,0.00,,CLR,0.00,VWS V12.07,2013-06-12 20:31:00,
2013-06-12 15:33:00,77.4,50.5,29.71,SSE,159,0.0,0.0,39,0.00,,CLR,0.00,VWS V12.07,2013-06-12 20:33:00,
2013-06-12 15:34:00,77.6,51.4,29.71,SSE,159,0.0,0.0,40,0.00,,CLR,0.00,VWS V12.07,2013-06-12 20:34:00,
2013-06-12 15:35:00,77.6,52.1,29.71,SSE,159,0.0,1.0,41,0.00,,CLR,0.00,VWS V12.07,2013-06-12 20:35:00,
2013-06-12 15:36:00,77.6,50.7,29.71,SSE,159,0.0,1.0,39,0.00,,CLR,0.00,VWS V12.07,2013-06-12 20:36:00,
2013-06-12 15:37:00,77.7,52.2,29.71,SSE,159,0.0,1.0,41,0.00,,CLR,0.00,VWS V12.07,2013-06-12 20:37:00,
2013-06-12 15:38:00,77.7,51.5,29.71,SSE,159,0.0,1.0,40,0.00,,CLR,0.00,VWS V12.07,2013-06-12 20:38:00,
2013-06-12 15:39:00,77.7,51.5,29.71,SSE,159,0.0,1.0,40,0.00,,CLR,0.00,VWS V12.07,2013-06-12 20:39:00,
2013-06-12 15:40:00,77.7,52.8,29.71,SSE,159,0.0,1.0,42,0.00,,CLR,0.00,VWS V12.07,2013-06-12 20:40:00,
2013-06-12 15:42:00,77.7,52.8,29.71,SSE,159,0.0,1.0,42,0.00,,CLR,0.00,VWS V12.07,2013-06-12 20:42:00,
2013-06-12 15:44:00,77.7,51.5,29.70,SSE,159,0.0,1.0,40,0.00,,CLR,0.00,VWS V12.07,2013-06-12 20:44:00,
2013-06-12 15:45:00,77.7,52.8,29.70,SSE,159,0.0,1.0,42,0.00,,CLR,0.00,VWS V12.07,2013-06-12 20:45:00,
2013-06-12 15:47:00,77.7,52.8,29.70,SSE,159,0.0,1.0,42,0.00,,CLR,0.00,VWS V12.07,2013-06-12 20:47:00,
2013-06-12 15:49:00,77.7,53.5,29.70,SSE,159,0.0,1.0,43,0.00,,CLR,0.00,VWS V12.07,2013-06-12 20:49:00,
2013-06-12 15:50:00,77.6,53.4,29.70,SSE,159,0.0,1.0,43,0.00,,CLR,0.00,VWS V12.07,2013-06-12 20:50:00,
2013-06-12 15:52:00,77.6,51.4,29.70,SSE,159,0.0,1.0,40,0.00,,CLR,0.00,VWS V12.07,2013-06-12 20:52:00,
2013-06-12 15:53:00,77.6,51.4,29.70,SSE,159,0.0,1.0,40,0.00,,CLR,0.00,VWS V12.07,2013-06-12 20:53:00,
2013-06-12 15:54:00,77.6,50.7,29.70,SSE,159,0.0,1.0,39,0.00,,CLR,0.00,VWS V12.07,2013-06-12 20:54:00,
2013-06-12 15:55:00,77.6,54.0,29.70,SSE,159,0.0,0.0,44,0.00,,CLR,0.00,VWS V12.07,2013-06-12 20:55:00,
2013-06-12 15:56:00,77.6,54.0,29.70,SSE,159,0.0,0.0,44,0.00,,CLR,0.00,VWS V12.07,2013-06-12 20:56:00,
2013-06-12 15:58:00,77.6,54.6,29.70,SSE,159,0.0,0.0,45,0.00,,CLR,0.00,VWS V12.07,2013-06-12 20:58:00,
2013-06-12 16:00:00,77.4,55.0,29.70,SSE,159,0.0,0.0,46,0.00,,CLR,0.00,VWS V12.07,2013-06-12 21:00:00,
2013-06-12 16:01:00,77.2,54.8,29.70,SSE,159,0.0,0.0,46,0.00,,CLR,0.00,VWS V12.07,2013-06-12 21:01:00,
2013-06-12 16:03:00,77.0,55.8,29.70,SSE,159,0.0,0.0,48,0.00,,CLR,0.00,VWS V12.07,2013-06-12 21:03:00,
2013-06-12 16:05:00,77.0,55.8,29.70,SSE,159,0.0,0.0,48,0.00,,CLR,0.00,VWS V12.07,2013-06-12 21:05:00,
2013-06-12 16:06:00,76.8,55.1,29.70,SSE,159,0.0,0.0,47,0.00,,CLR,0.00,VWS V12.07,2013-06-12 21:06:00,
2013-06-12 16:08:00,76.8,55.1,29.70,SSE,159,0.0,0.0,47,0.00,,CLR,0.00,VWS V12.07,2013-06-12 21:08:00,
2013-06-12 16:09:00,76.8,55.1,29.70,SSE,159,0.0,0.0,47,0.00,,CLR,0.00,VWS V12.07,2013-06-12 21:09:00,
2013-06-12 16:10:00,76.8,54.5,29.70,SSE,159,0.0,0.0,46,0.00,,CLR,0.00,VWS V12.07,2013-06-12 21:10:00,
2013-06-12 16:12:00,76.8,55.1,29.70,SSE,159,0.0,0.0,47,0.00,,CLR,0.00,VWS V12.07,2013-06-12 21:12:00,
2013-06-12 16:13:00,76.8,52.6,29.70,SSE,159,0.0,0.0,43,0.00,,CLR,0.00,VWS V12.07,2013-06-12 21:13:00,
2013-06-12 16:14:00,76.8,52.6,29.70,SSE,159,0.0,0.0,43,0.00,,CLR,0.00,VWS V12.07,2013-06-12 21:14:00,
2013-06-12 16:15:00,76.8,56.8,29.70,SSE,159,0.0,1.0,50,0.00,,CLR,0.00,VWS V12.07,2013-06-12 21:15:00,
2013-06-12 16:16:00,76.8,56.8,29.70,SSE,159,0.0,1.0,50,0.00,,CLR,0.00,VWS V12.07,2013-06-12 21:16:00,
2013-06-12 16:18:00,76.8,53.3,29.70,SSE,159,0.0,1.0,44,0.00,,CLR,0.00,VWS V12.07,2013-06-12 21:18:00,
2013-06-12 16:19:00,76.8,52.0,29.70,SSE,159,0.0,1.0,42,0.00,,CLR,0.00,VWS V12.07,2013-06-12 21:19:00,
2013-06-12 16:21:00,77.0,51.5,29.70,SSE,159,0.0,2.0,41,0.00,,CLR,0.00,VWS V12.07,2013-06-12 21:21:00,
2013-06-12 16:23:00,77.2,51.7,29.70,SSE,159,1.0,2.0,41,0.00,,CLR,0.00,VWS V12.07,2013-06-12 21:23:00,
2013-06-12 16:24:00,77.2,51.7,29.70,SSE,159,0.0,2.0,41,0.00,,CLR,0.00,VWS V12.07,2013-06-12 21:24:00,
2013-06-12 16:26:00,77.2,52.4,29.70,SSE,159,0.0,1.0,42,0.00,,CLR,0.00,VWS V12.07,2013-06-12 21:26:00,
2013-06-12 16:27:00,77.2,53.6,29.70,SSE,159,0.0,1.0,44,0.00,,CLR,0.00,VWS V12.07,2013-06-12 21:27:00,
2013-06-12 16:28:00,77.2,53.6,29.70,SSE,159,0.0,1.0,44,0.00,,CLR,0.00,VWS V12.07,2013-06-12 21:28:00,
2013-06-12 16:29:00,77.2,51.0,29.69,SSE,159,0.0,1.0,40,0.00,,CLR,0.00,VWS V12.07,2013-06-12 21:29:00,
2013-06-12 16:30:00,77.2,53.0,29.69,SSE,159,0.0,1.0,43,0.00,,CLR,0.00,VWS V12.07,2013-06-12 21:30:00,
2013-06-12 16:31:00,77.2,54.2,29.69,SSE,159,0.0,1.0,45,0.00,,CLR,0.00,VWS V12.07,2013-06-12 21:31:00,
2013-06-12 16:32:00,77.2,54.2,29.69,SSE,159,0.0,1.0,45,0.00,,CLR,0.00,VWS V12.07,2013-06-12 21:32:00,
2013-06-12 16:33:00,77.2,55.4,29.69,SSE,159,0.0,1.0,47,0.00,,CLR,0.00,VWS V12.07,2013-06-12 21:33:00,
2013-06-12 16:34:00,77.2,54.8,29.69,SSE,159,0.0,0.0,46,0.00,,CLR,0.00,VWS V12.07,2013-06-12 21:34:00,
2013-06-12 16:35:00,77.2,53.0,29.69,SSE,159,0.0,0.0,43,0.00,,CLR,0.00,VWS V12.07,2013-06-12 21:35:00,
2013-06-12 16:37:00,77.2,53.0,29.69,SSE,159,0.0,0.0,43,0.00,,CLR,0.00,VWS V12.07,2013-06-12 21:37:00,
2013-06-12 16:39:00,77.2,53.0,29.69,SSE,159,0.0,0.0,43,0.00,,OVC080,0.00,VWS V12.07,2013-06-12 21:39:00,
2013-06-12 16:40:00,77.2,53.0,29.69,SSE,159,0.0,0.0,43,0.00,,OVC080,0.00,VWS V12.07,2013-06-12 21:40:00,
2013-06-12 16:42:00,77.2,53.0,29.69,SSE,159,0.0,0.0,43,0.00,,OVC080,0.00,VWS V12.07,2013-06-12 21:42:00,
2013-06-12 16:43:00,77.2,53.0,29.69,SSE,159,0.0,0.0,43,0.00,,OVC080,0.00,VWS V12.07,2013-06-12 21:43:00,
2013-06-12 16:44:00,77.2,53.0,29.69,SSE,159,0.0,0.0,43,0.00,,OVC080,0.00,VWS V12.07,2013-06-12 21:44:00,
2013-06-12 16:45:00,77.2,53.0,29.69,SSE,159,0.0,0.0,43,0.00,,OVC080,0.00,VWS V12.07,2013-06-12 21:45:00,
2013-06-12 17:00:00,77.4,52.5,29.68,SSE,158,0.0,1.0,42,0.00,,BKN070,0.00,VWS V12.07,2013-06-12 22:00:00,
2013-06-12 17:10:00,76.8,57.3,29.68,SSE,158,0.0,4.0,51,0.00,,BKN070,0.00,VWS V12.07,2013-06-12 22:10:00,
2013-06-12 17:20:00,75.4,59.6,29.68,South,180,0.0,4.0,58,0.00,,BKN070,0.00,VWS V12.07,2013-06-12 22:20:00,
2013-06-12 17:30:00,73.2,59.4,29.69,SSW,202,1.0,4.0,62,0.00,,BKN070,0.00,VWS V12.07,2013-06-12 22:30:00,
2013-06-12 17:36:00,77.2,53.0,29.69,SSE,159,0.0,0.0,43,0.00,,SCT080,0.00,VWS V12.07,2013-06-12 22:36:00,
2013-06-12 17:37:00,77.2,53.0,29.69,SSE,159,0.0,0.0,43,0.00,,SCT080,0.00,VWS V12.07,2013-06-12 22:37:00,
2013-06-12 17:38:00,77.2,53.0,29.69,SSE,159,0.0,0.0,43,0.00,,BKN080,0.00,VWS V12.07,2013-06-12 22:38:00,
2013-06-12 17:39:00,77.2,53.0,29.69,SSE,159,0.0,0.0,43,0.00,,BKN080,0.00,VWS V12.07,2013-06-12 22:39:00,
2013-06-12 17:40:00,72.5,58.8,29.69,ENE,68,1.0,4.0,62,0.00,,BKN070,0.00,VWS V12.07,2013-06-12 22:40:00,
2013-06-12 17:42:00,77.2,53.0,29.69,SSE,159,0.0,0.0,43,0.00,,BKN080,0.00,VWS V12.07,2013-06-12 22:42:00,
2013-06-12 17:50:00,72.0,59.2,29.70,SSE,158,1.0,4.0,64,0.00,,BKN070,0.00,VWS V12.07,2013-06-12 22:50:00,
2013-06-12 18:00:00,70.8,59.3,29.70,SSE,158,1.0,4.0,67,0.00,,BKN070,0.00,VWS V12.07,2013-06-12 23:00:00,
2013-06-12 18:10:00,69.4,58.8,29.70,SSW,202,0.0,3.0,69,0.00,,BKN070,0.00,VWS V12.07,2013-06-12 23:10:00,
2013-06-12 18:20:00,68.4,57.8,29.70,SSW,202,0.0,3.0,69,0.00,,BKN070,0.00,VWS V12.07,2013-06-12 23:20:00,
2013-06-12 18:30:00,68.1,58.0,29.69,SSW,202,1.0,4.0,70,0.00,,BKN070,0.00,VWS V12.07,2013-06-12 23:30:00,
2013-06-12 18:40:00,67.8,57.7,29.69,SSW,202,0.0,2.0,70,0.00,,BKN070,0.00,VWS V12.07,2013-06-12 23:40:00,
2013-06-12 18:50:00,67.6,58.7,29.68,SSW,202,0.0,2.0,73,0.00,,BKN070,0.00,VWS V12.07,2013-06-12 23:50:00,
2013-06-12 19:00:00,67.8,59.2,29.68,SSW,202,0.0,0.0,74,0.00,,BKN070,0.00,VWS V12.07,2013-06-13 00:00:00,
2013-06-12 19:10:00,68.1,58.7,29.68,SSW,202,0.0,0.0,72,0.00,,BKN070,0.00,VWS V12.07,2013-06-13 00:10:00,
2013-06-12 19:20:00,68.1,58.3,29.68,SSW,202,0.0,0.0,71,0.00,,BKN070,0.00,VWS V12.07,2013-06-13 00:20:00,
2013-06-12 19:30:00,67.9,58.5,29.68,SSW,202,0.0,0.0,72,0.00,,BKN070,0.00,VWS V12.07,2013-06-13 00:30:00,
2013-06-12 19:40:00,67.8,58.8,29.68,SSW,202,0.0,0.0,73,0.00,,BKN070,0.00,VWS V12.07,2013-06-13 00:40:00,
2013-06-12 19:50:00,67.8,58.8,29.69,ESE,112,0.0,1.0,73,0.00,,BKN070,0.00,VWS V12.07,2013-06-13 00:50:00,
2013-06-12 20:00:00,67.6,57.5,29.70,ESE,112,0.0,0.0,70,0.00,,BKN070,0.00,VWS V12.07,2013-06-13 01:00:00,
2013-06-12 20:10:00,67.4,51.2,29.70,NE,45,0.0,4.0,56,0.00,,BKN070,0.00,VWS V12.07,2013-06-13 01:10:00,
2013-06-12 20:20:00,68.1,49.8,29.69,NNE,22,0.0,3.0,52,0.00,,BKN070,0.00,VWS V12.07,2013-06-13 01:20:00,
2013-06-12 20:30:00,68.1,50.3,29.70,NNE,22,0.0,0.0,53,0.00,,BKN070,0.00,VWS V12.07,2013-06-13 01:30:00,
2013-06-12 20:40:00,67.8,50.1,29.70,NNE,22,0.0,2.0,53,0.00,,BKN070,0.00,VWS V12.07,2013-06-13 01:40:00,
2013-06-12 20:50:00,67.4,50.2,29.70,WSW,248,0.0,2.0,54,0.00,,BKN070,0.00,VWS V12.07,2013-06-13 01:50:00,
2013-06-12 21:02:00,77.4,52.5,29.68,SSE,158,0.0,1.0,42,0.00,,BKN070,0.00,VWS V12.07,2013-06-13 02:02:00,
2013-06-12 21:03:00,67.4,51.2,29.70,NE,45,0.0,4.0,56,0.00,,BKN070,0.00,VWS V12.07,2013-06-13 02:03:00,
2013-06-12 21:07:00,66.9,49.2,29.71,NNE,16,0.0,4.0,53,0.00,,BKN070,0.00,VWS V12.07,2013-06-13 02:07:00,
2013-06-12 21:08:00,66.9,49.7,29.71,NNE,16,0.0,4.0,54,0.00,,BKN070,0.00,VWS V12.07,2013-06-13 02:08:00,
2013-06-12 21:12:00,66.8,50.6,29.71,NNE,15,0.0,1.0,56,0.00,,BKN080,0.00,VWS V12.07,2013-06-13 02:12:00,
2013-06-12 21:13:00,66.8,50.6,29.71,NNE,15,0.0,1.0,56,0.00,,BKN080,0.00,VWS V12.07,2013-06-13 02:13:00,
2013-06-12 21:17:00,66.6,49.5,29.71,NNE,15,0.0,1.0,54,0.00,,BKN080,0.00,VWS V12.07,2013-06-13 02:17:00,
2013-06-12 21:18:00,66.4,49.3,29.71,NNE,15,0.0,1.0,54,0.00,,BKN080,0.00,VWS V12.07,2013-06-13 02:18:00,
2013-06-12 21:22:00,66.4,49.8,29.71,NNW,333,0.0,2.0,55,0.00,,BKN080,0.00,VWS V12.07,2013-06-13 02:22:00,
2013-06-12 21:23:00,66.4,49.3,29.71,NNW,333,0.0,2.0,54,0.00,,BKN080,0.00,VWS V12.07,2013-06-13 02:23:00,
2013-06-12 21:24:00,66.3,49.7,29.71,NNW,333,0.0,0.0,55,0.00,,BKN080,0.00,VWS V12.07,2013-06-13 02:24:00,
2013-06-12 21:27:00,66.1,50.0,29.71,NNW,333,0.0,0.0,56,0.00,,BKN080,0.00,VWS V12.07,2013-06-13 02:27:00,
2013-06-12 21:28:00,66.1,49.5,29.72,NNW,333,0.0,0.0,55,0.00,,BKN080,0.00,VWS V12.07,2013-06-13 02:28:00,
2013-06-12 21:29:00,66.1,50.0,29.72,NNW,333,0.0,0.0,56,0.00,,BKN080,0.00,VWS V12.07,2013-06-13 02:29:00,
2013-06-12 21:33:00,66.0,49.4,29.72,NNE,15,0.0,0.0,55,0.00,,BKN080,0.00,VWS V12.07,2013-06-13 02:33:00,
2013-06-12 21:34:00,65.8,50.2,29.72,NNE,15,0.0,4.0,57,0.00,,BKN080,0.00,VWS V12.07,2013-06-13 02:34:00,
2013-06-12 21:35:00,65.8,50.2,29.72,NNE,15,0.0,4.0,57,0.00,,BKN080,0.00,VWS V12.07,2013-06-13 02:35:00,
2013-06-12 21:39:00,65.6,49.0,29.72,NNE,15,0.0,1.0,55,0.00,,BKN080,0.00,VWS V12.07,2013-06-13 02:39:00,
2013-06-12 21:40:00,65.6,49.5,29.72,NNE,15,0.0,1.0,56,0.00,,OVC075,0.00,VWS V12.07,2013-06-13 02:40:00,
2013-06-12 21:44:00,65.5,48.9,29.72,ENE,61,0.0,4.0,55,0.00,,OVC075,0.00,VWS V12.07,2013-06-13 02:44:00,
2013-06-12 21:45:00,65.5,50.3,29.72,ENE,61,0.0,0.0,58,0.00,,OVC075,0.00,VWS V12.07,2013-06-13 02:45:00,
2013-06-12 21:46:00,65.5,49.4,29.72,NE,49,0.0,2.0,56,0.00,,OVC075,0.00,VWS V12.07,2013-06-13 02:46:00,
2013-06-12 21:49:00,65.3,50.6,29.72,NE,49,0.0,2.0,59,0.00,,OVC075,0.00,VWS V12.07,2013-06-13 02:49:00,
2013-06-12 21:50:00,65.3,51.1,29.72,NE,49,0.0,2.0,60,0.00,,OVC070,0.00,VWS V12.07,2013-06-13 02:50:00,
2013-06-12 21:51:00,65.3,50.6,29.72,NE,49,0.0,2.0,59,0.00,,OVC070,0.00,VWS V12.07,2013-06-13 02:51:00,
2013-06-12 21:55:00,65.2,50.5,29.72,NE,49,0.0,0.0,59,0.00,,OVC070,0.00,VWS V12.07,2013-06-13 02:55:00,
2013-06-12 21:56:00,65.0,50.8,29.72,NE,49,0.0,0.0,60,0.00,,OVC070,0.00,VWS V12.07,2013-06-13 02:56:00,
2013-06-12 22:00:00,64.8,50.2,29.72,NE,49,0.0,0.0,59,0.00,,OVC070,0.00,VWS V12.07,2013-06-13 03:00:00,
2013-06-12 22:01:00,64.8,50.2,29.72,NE,40,0.0,2.0,59,0.00,,OVC070,0.00,VWS V12.07,2013-06-13 03:01:00,
2013-06-12 22:02:00,64.8,50.2,29.72,NE,40,0.0,2.0,59,0.00,,OVC070,0.00,VWS V12.07,2013-06-13 03:02:00,
2013-06-12 22:05:00,64.7,51.4,29.72,NE,40,0.0,0.0,62,0.00,,OVC070,0.00,VWS V12.07,2013-06-13 03:05:00,
2013-06-12 22:06:00,64.7,50.5,29.72,NE,40,0.0,0.0,60,0.00,,OVC070,0.00,VWS V12.07,2013-06-13 03:06:00,
2013-06-12 22:07:00,64.7,50.5,29.72,NE,40,0.0,0.0,60,0.00,,OVC070,0.00,VWS V12.07,2013-06-13 03:07:00,
2013-06-12 22:08:00,64.5,50.3,29.72,NE,40,0.0,0.0,60,0.00,,OVC070,0.00,VWS V12.07,2013-06-13 03:08:00,
2013-06-12 22:10:00,64.5,49.9,29.72,NE,40,0.0,0.0,59,0.00,,OVC070,0.00,VWS V12.07,2013-06-13 03:10:00,
2013-06-12 22:12:00,64.5,49.9,29.72,NE,40,0.0,0.0,59,0.00,,OVC070,0.00,VWS V12.07,2013-06-13 03:12:00,
2013-06-12 22:13:00,64.3,49.7,29.72,NE,40,0.0,0.0,59,0.00,,OVC070,0.00,VWS V12.07,2013-06-13 03:13:00,
2013-06-12 22:15:00,64.3,49.2,29.72,NE,40,0.0,0.0,58,0.00,,OVC070,0.00,VWS V12.07,2013-06-13 03:15:00,
2013-06-12 22:16:00,64.3,48.8,29.72,NE,40,0.0,0.0,57,0.00,,OVC070,0.00,VWS V12.07,2013-06-13 03:16:00,
2013-06-12 22:17:00,64.3,48.8,29.72,NE,40,0.0,0.0,57,0.00,,OVC070,0.00,VWS V12.07,2013-06-13 03:17:00,
2013-06-12 22:19:00,64.3,49.2,29.72,NE,40,0.0,0.0,58,0.00,,OVC070,0.00,VWS V12.07,2013-06-13 03:19:00,
2013-06-12 22:20:00,64.3,49.2,29.72,NE,40,0.0,0.0,58,0.00,,OVC070,0.00,VWS V12.07,2013-06-13 03:20:00,
2013-06-12 22:21:00,64.3,49.2,29.72,NE,40,0.0,0.0,58,0.00,,OVC070,0.00,VWS V12.07,2013-06-13 03:21:00,
2013-06-12 22:22:00,64.3,49.2,29.72,NE,40,0.0,0.0,58,0.00,,OVC070,0.00,VWS V12.07,2013-06-13 03:22:00,
2013-06-12 22:24:00,64.3,49.7,29.72,NNE,33,0.0,0.0,59,0.00,,OVC070,0.00,VWS V12.07,2013-06-13 03:24:00,
2013-06-12 22:25:00,64.3,49.7,29.72,North,4,0.0,2.0,59,0.00,,OVC070,0.00,VWS V12.07,2013-06-13 03:25:00,
2013-06-12 22:27:00,64.3,50.6,29.72,North,4,0.0,2.0,61,0.00,,OVC070,0.00,VWS V12.07,2013-06-13 03:27:00,
2013-06-12 22:28:00,64.3,50.6,29.72,North,4,0.0,2.0,61,0.00,,OVC070,0.00,VWS V12.07,2013-06-13 03:28:00,
2013-06-12 22:30:00,64.2,50.0,29.72,North,4,0.0,2.0,60,0.00,,OVC070,0.00,VWS V12.07,2013-06-13 03:30:00,
2013-06-12 22:32:00,64.2,50.9,29.72,North,4,0.0,2.0,62,0.00,,OVC070,0.00,VWS V12.07,2013-06-13 03:32:00,
2013-06-12 22:33:00,64.0,50.3,29.72,North,4,0.0,2.0,61,0.00,,OVC070,0.00,VWS V12.07,2013-06-13 03:33:00,
2013-06-12 22:35:00,63.9,50.2,29.72,North,4,0.0,0.0,61,0.00,,OVC070,0.00,VWS V12.07,2013-06-13 03:35:00,
2013-06-12 22:37:00,63.9,50.2,29.72,North,4,0.0,0.0,61,0.00,,BKN085,0.00,VWS V12.07,2013-06-13 03:37:00,
2013-06-12 22:38:00,63.7,50.0,29.72,North,4,0.0,0.0,61,0.00,,BKN085,0.00,VWS V12.07,2013-06-13 03:38:00,
2013-06-12 22:39:00,63.7,50.0,29.72,North,4,0.0,0.0,61,0.00,,BKN085,0.00,VWS V12.07,2013-06-13 03:39:00,
2013-06-12 22:40:00,63.5,49.8,29.72,North,4,0.0,0.0,61,0.00,,BKN085,0.00,VWS V12.07,2013-06-13 03:40:00,
2013-06-12 22:41:00,63.5,49.8,29.72,North,4,0.0,0.0,61,0.00,,BKN085,0.00,VWS V12.07,2013-06-13 03:41:00,
2013-06-12 22:42:00,63.5,49.8,29.72,North,4,0.0,0.0,61,0.00,,BKN085,0.00,VWS V12.07,2013-06-13 03:42:00,
2013-06-12 22:44:00,63.4,49.7,29.72,North,4,0.0,0.0,61,0.00,,BKN085,0.00,VWS V12.07,2013-06-13 03:44:00,
2013-06-12 22:46:00,63.2,50.0,29.72,North,4,0.0,0.0,62,0.00,,BKN085,0.00,VWS V12.07,2013-06-13 03:46:00,
2013-06-12 22:48:00,63.2,50.4,29.72,North,4,0.0,0.0,63,0.00,,BKN085,0.00,VWS V12.07,2013-06-13 03:48:00,
2013-06-12 22:49:00,63.1,50.3,29.72,North,4,0.0,0.0,63,0.00,,BKN085,0.00,VWS V12.07,2013-06-13 03:49:00,
2013-06-12 22:51:00,63.1,50.3,29.72,North,4,0.0,0.0,63,0.00,,BKN075,0.00,VWS V12.07,2013-06-13 03:51:00,
2013-06-12 22:53:00,62.9,49.7,29.72,North,4,0.0,0.0,62,0.00,,BKN075,0.00,VWS V12.07,2013-06-13 03:53:00,
2013-06-12 22:54:00,62.9,49.7,29.72,North,4,0.0,0.0,62,0.00,,BKN075,0.00,VWS V12.07,2013-06-13 03:54:00,
2013-06-12 22:56:00,62.7,49.9,29.72,North,4,0.0,0.0,63,0.00,,BKN075,0.00,VWS V12.07,2013-06-13 03:56:00,
2013-06-12 22:57:00,62.7,50.4,29.72,North,4,0.0,0.0,64,0.00,,BKN075,0.00,VWS V12.07,2013-06-13 03:57:00,
2013-06-12 22:59:00,62.6,50.7,29.72,North,4,0.0,0.0,65,0.00,,BKN075,0.00,VWS V12.07,2013-06-13 03:59:00,
2013-06-12 23:01:00,62.6,50.3,29.72,North,4,0.0,0.0,64,0.00,,BKN075,0.00,VWS V12.07,2013-06-13 04:01:00,
2013-06-12 23:02:00,62.6,51.5,29.72,North,4,0.0,0.0,67,0.00,,BKN075,0.00,VWS V12.07,2013-06-13 04:02:00,
2013-06-12 23:06:00,62.4,51.3,29.72,North,4,0.0,0.0,67,0.00,,BKN075,0.00,VWS V12.07,2013-06-13 04:06:00,
2013-06-12 23:07:00,62.3,50.8,29.72,North,4,0.0,0.0,66,0.00,,BKN075,0.00,VWS V12.07,2013-06-13 04:07:00,
2013-06-12 23:11:00,62.1,50.6,29.72,NNE,14,0.0,0.0,66,0.00,,BKN075,0.00,VWS V12.07,2013-06-13 04:11:00,
2013-06-12 23:12:00,62.1,50.6,29.72,NNE,14,0.0,0.0,66,0.00,,BKN075,0.00,VWS V12.07,2013-06-13 04:12:00,
2013-06-12 23:13:00,62.1,50.2,29.72,NNE,14,0.0,0.0,65,0.00,,BKN075,0.00,VWS V12.07,2013-06-13 04:13:00,
2013-06-12 23:17:00,61.8,51.1,29.72,NNE,14,0.0,0.0,68,0.00,,BKN075,0.00,VWS V12.07,2013-06-13 04:17:00,
2013-06-12 23:18:00,61.8,50.7,29.72,NNE,14,0.0,0.0,67,0.00,,BKN075,0.00,VWS V12.07,2013-06-13 04:18:00,
2013-06-12 23:22:00,61.5,50.5,29.72,NNE,14,0.0,0.0,67,0.00,,BKN075,0.00,VWS V12.07,2013-06-13 04:22:00,
2013-06-12 23:23:00,61.3,50.3,29.72,NNE,14,0.0,0.0,67,0.00,,BKN075,0.00,VWS V12.07,2013-06-13 04:23:00,
2013-06-12 23:24:00,61.3,50.3,29.72,NNE,14,0.0,0.0,67,0.00,,BKN075,0.00,VWS V12.07,2013-06-13 04:24:00,
2013-06-12 23:27:00,61.2,50.2,29.72,NNE,14,0.0,0.0,67,0.00,,BKN075,0.00,VWS V12.07,2013-06-13 04:27:00,
2013-06-12 23:28:00,61.2,50.2,29.72,NNE,14,0.0,0.0,67,0.00,,BKN075,0.00,VWS V12.07,2013-06-13 04:28:00,
2013-06-12 23:29:00,61.2,50.6,29.72,NNE,14,0.0,0.0,68,0.00,,BKN075,0.00,VWS V12.07,2013-06-13 04:29:00,
2013-06-12 23:33:00,61.0,50.0,29.72,NNE,14,0.0,0.0,67,0.00,,BKN075,0.00,VWS V12.07,2013-06-13 04:33:00,
2013-06-12 23:34:00,61.0,50.0,29.72,NNE,14,0.0,0.0,67,0.00,,BKN075,0.00,VWS V12.07,2013-06-13 04:34:00,
2013-06-12 23:38:00,61.0,50.4,29.72,NNE,14,0.0,0.0,68,0.00,,OVC075,0.00,VWS V12.07,2013-06-13 04:38:00,
2013-06-12 23:39:00,61.0,50.0,29.72,NNE,14,0.0,0.0,67,0.00,,OVC075,0.00,VWS V12.07,2013-06-13 04:39:00,
2013-06-12 23:40:00,61.0,50.4,29.72,NNE,14,0.0,0.0,68,0.00,,OVC075,0.00,VWS V12.07,2013-06-13 04:40:00,
2013-06-12 23:43:00,60.9,50.3,29.73,NNE,14,0.0,0.0,68,0.00,,OVC075,0.00,VWS V12.07,2013-06-13 04:43:00,
2013-06-12 23:44:00,60.7,50.1,29.73,NNE,14,0.0,0.0,68,0.00,,OVC075,0.00,VWS V12.07,2013-06-13 04:44:00,
2013-06-12 23:45:00,60.7,50.1,29.73,NNE,14,0.0,0.0,68,0.00,,OVC075,0.00,VWS V12.07,2013-06-13 04:45:00,
2013-06-12 23:49:00,60.5,50.3,29.73,NNE,14,0.0,0.0,69,0.00,,OVC075,0.00,VWS V12.07,2013-06-13 04:49:00,
2013-06-12 23:50:00,60.5,50.3,29.73,NNE,14,0.0,0.0,69,0.00,,SCT075,0.00,VWS V12.07,2013-06-13 04:50:00,
2013-06-12 23:54:00,60.4,50.2,29.73,NNE,14,0.0,0.0,69,0.00,,SCT075,0.00,VWS V12.07,2013-06-13 04:54:00,
2013-06-12 23:55:00,60.4,50.6,29.73,NNE,14,0.0,0.0,70,0.00,,SCT075,0.00,VWS V12.07,2013-06-13 04:55:00,
2013-06-12 23:56:00,60.4,50.6,29.73,NNE,14,0.0,0.0,70,0.00,,SCT075,0.00,VWS V12.07,2013-06-13 04:56:00,
2013-06-12 23:59:00,60.2,50.4,29.73,NNE,14,0.0,0.0,70,0.00,,SCT075,0.00,VWS V12.07,2013-06-13 04:59:00,